ECMWFFLT1_850_thetae_003.txt.gz
Theta_e
346 344 346 347 347 348 349 348 351 354 353 355 357 352 349 349 346 342 334 328 333 339 338 338 339 336 334 336 337 338 337 338 338 335 335 335 333 332 334 334 333 332 333 333 333 331 326 324 323 324 328 329 328 329 328 327 325 324 325 327 328 330 331
347 345 346 347 346 347 345 346 352 354 352 354 355 349 347 348 345 339 331 327 335 340 339 338 338 337 335 336 337 338 338 337 337 336 336 336 334 333 333 333 333 333 333 333 331 328 325 325 325 326 326 325 327 328 327 327 326 326 326 326 328 331 331
351 347 347 349 349 347 345 347 352 353 351 350 350 347 347 349 345 337 330 329 333 339 340 339 339 338 338 337 337 339 339 337 336 335 336 336 334 333 333 333 334 334 334 333 332 330 328 327 325 326 325 324 326 328 327 327 328 329 329 328 329 330 330
351 350 348 349 351 348 344 345 350 353 351 350 347 342 344 349 345 336 331 332 336 339 341 341 340 340 339 338 338 338 338 337 335 335 334 334 333 332 332 334 334 334 334 333 332 330 329 325 324 326 327 327 329 329 329 330 330 330 331 330 328 327 328
349 349 346 348 352 351 346 345 350 353 350 348 344 338 342 349 346 338 336 338 340 341 341 342 342 341 339 338 338 337 336 335 333 332 332 332 332 331 332 334 333 333 334 333 332 332 330 327 326 327 328 330 332 332 331 332 331 330 330 330 326 325 328
348 349 348 348 349 351 350 348 351 353 348 345 341 339 344 348 344 340 341 341 341 341 342 341 341 340 338 337 338 338 336 334 332 329 329 331 331 332 333 333 333 333 333 332 332 332 330 327 325 325 326 329 330 329 329 330 329 328 328 327 326 326 327
349 351 352 351 349 351 353 351 351 352 349 343 341 343 345 345 342 341 342 342 341 341 341 341 341 340 338 337 337 337 336 336 335 333 332 333 332 333 333 332 332 333 333 332 332 332 331 329 327 325 325 325 326 325 325 325 325 326 327 327 326 326 326
349 352 352 352 353 354 353 351 349 349 347 343 343 345 344 343 343 341 342 343 341 340 340 341 341 341 339 337 335 336 336 336 336 335 334 334 333 333 332 331 331 331 332 332 332 332 332 331 329 327 325 325 325 325 325 325 325 325 326 328 326 325 325
348 353 354 354 353 351 350 349 347 345 344 343 345 347 345 344 344 342 342 343 341 339 340 339 339 340 340 338 335 335 336 335 335 335 334 334 333 332 331 329 329 330 330 331 331 332 332 331 329 327 325 325 326 326 326 325 325 325 326 327 326 325 325
347 354 356 356 352 350 348 347 344 342 342 344 347 348 347 345 344 342 341 342 340 339 338 336 335 336 339 339 337 336 336 336 336 335 335 334 333 332 330 329 328 329 329 329 330 331 331 331 330 329 327 327 327 328 329 328 328 326 325 326 327 328 327
349 355 358 356 352 349 347 346 344 342 344 345 347 349 348 345 344 342 340 340 339 338 338 337 335 335 337 338 337 337 337 337 336 336 335 334 332 331 331 330 329 329 329 329 330 330 329 330 330 330 330 329 328 328 328 329 330 329 326 326 328 328 327
351 357 360 357 353 349 346 346 345 345 346 347 349 350 348 344 343 342 341 340 337 338 338 338 337 336 337 336 336 336 337 337 336 335 334 333 333 332 332 330 330 330 329 329 329 329 329 329 329 329 329 330 330 329 327 327 329 331 328 328 329 329 327
350 357 360 359 354 349 349 349 347 347 348 348 350 350 347 345 343 342 341 339 337 337 337 337 337 337 337 335 334 334 336 336 335 335 334 333 332 332 331 331 330 330 329 328 328 329 329 328 328 328 328 329 329 329 328 328 329 329 326 324 328 331 329
348 351 358 362 356 352 353 352 350 351 351 351 352 349 347 347 344 341 342 340 336 336 336 337 337 338 337 335 333 333 334 334 335 334 333 332 332 331 331 331 331 331 330 329 329 330 329 328 327 328 328 329 329 328 329 329 329 327 323 322 327 331 330
348 347 354 362 359 356 356 355 354 355 355 355 353 349 350 348 344 344 343 338 335 336 337 338 339 339 338 336 335 335 334 335 334 334 333 332 332 331 332 332 332 332 331 330 330 329 329 328 328 328 328 329 329 329 330 330 329 328 327 326 328 329 327
347 347 350 357 361 360 359 358 359 359 358 356 351 349 351 347 345 345 340 334 335 337 338 338 339 337 334 335 336 336 335 335 335 334 333 333 332 332 332 333 333 333 331 330 330 329 329 329 329 328 328 328 329 329 330 331 330 331 331 329 327 325 325
341 346 347 352 360 362 361 361 363 361 359 354 349 350 349 346 346 344 337 333 336 339 337 338 339 335 329 332 336 336 335 335 334 335 334 333 333 332 332 333 334 333 332 330 329 329 329 328 328 328 328 328 329 330 331 332 331 331 332 329 325 323 323
340 343 346 350 357 361 362 363 364 363 359 352 350 350 348 346 346 341 335 334 337 338 338 339 339 335 331 334 337 336 335 334 334 334 334 334 333 333 333 334 334 333 332 331 329 329 328 328 327 328 328 329 330 330 331 331 330 329 330 327 323 321 321
341 340 343 347 353 359 362 363 363 362 359 353 351 350 347 346 344 338 334 335 336 337 339 339 339 337 336 337 338 335 334 333 333 333 333 333 333 333 333 333 334 333 332 330 328 327 327 327 327 327 328 328 328 328 329 328 328 328 328 326 324 322 322
341 340 342 346 351 356 359 361 361 361 359 354 351 350 347 345 341 336 334 335 336 337 337 336 337 337 338 338 337 334 332 332 332 332 332 333 333 334 334 334 334 334 331 329 328 327 327 327 327 328 328 327 326 325 326 326 326 326 326 326 326 325 323
342 344 345 347 352 355 358 360 359 359 358 355 351 349 346 342 338 335 334 335 337 337 336 335 335 336 337 337 335 333 332 332 332 332 332 333 334 335 335 335 335 334 330 328 327 327 327 327 327 327 327 327 326 325 326 327 326 324 325 326 327 326 325
342 344 346 350 353 354 358 359 358 357 356 353 350 346 343 340 337 336 336 337 337 337 337 336 335 335 336 336 335 333 332 332 332 332 333 333 334 335 335 335 336 333 329 327 327 328 328 327 326 326 326 326 325 324 324 325 324 323 324 324 325 326 325
341 344 347 350 352 355 356 357 356 355 354 351 347 343 341 338 337 336 337 337 335 336 337 337 336 334 335 336 335 332 331 331 331 332 332 332 333 333 333 334 334 332 329 328 328 328 327 326 325 326 326 325 323 322 323 324 324 323 323 323 324 326 326
341 344 348 350 351 354 355 355 356 355 353 349 345 341 339 337 336 336 336 335 335 336 336 336 335 334 335 337 335 332 331 331 331 332 333 332 332 332 333 333 332 331 329 328 328 328 328 327 326 326 327 326 325 324 322 323 324 323 322 322 323 324 325
341 345 348 350 351 353 355 356 356 354 350 346 341 339 338 336 336 336 334 334 334 334 334 335 334 333 334 336 335 332 331 331 331 333 333 331 330 331 331 331 330 331 330 329 328 327 327 327 327 327 328 327 327 325 323 324 325 323 321 323 323 324 325
344 346 349 350 352 354 356 356 355 351 346 342 339 338 337 336 335 334 334 335 334 333 333 333 333 333 334 334 333 332 331 330 332 333 333 331 330 330 331 330 331 331 330 328 327 326 326 326 327 327 328 327 327 326 325 327 326 322 321 322 322 323 324
346 347 348 348 352 356 356 356 354 349 343 341 339 337 336 334 333 333 334 334 334 334 334 332 331 332 333 333 333 331 330 331 333 333 332 330 330 330 330 329 330 329 327 327 327 327 328 328 327 328 328 327 327 327 327 328 326 322 321 322 321 322 324
346 345 345 348 353 355 355 354 351 346 342 340 338 336 335 334 334 335 335 334 334 335 334 332 330 330 331 332 332 331 331 333 333 331 329 328 330 332 331 329 328 326 325 326 327 329 330 330 328 329 328 325 326 327 326 325 324 321 321 321 320 320 322
346 344 346 350 352 351 350 349 346 342 340 339 337 336 334 333 335 335 334 333 334 333 333 333 331 330 332 332 331 331 333 334 332 330 329 329 330 332 332 331 329 327 326 327 328 330 331 331 330 330 328 325 326 326 323 323 323 321 321 321 320 320 321
345 343 345 346 346 346 345 345 344 340 337 337 335 333 333 334 336 335 331 329 330 330 332 334 333 332 331 332 333 335 335 333 330 329 331 332 331 332 332 332 330 328 327 329 330 330 330 330 330 330 329 328 327 325 323 324 323 322 321 320 320 321 321
344 343 342 339 340 343 342 342 342 337 334 336 336 335 337 337 336 337 337 336 337 338 338 339 337 334 332 334 337 336 333 329 327 329 332 332 330 330 330 330 329 328 328 329 330 330 329 329 329 329 328 328 327 325 326 326 324 322 321 321 321 322 321
343 341 338 336 340 342 340 339 340 337 338 342 342 340 338 333 333 340 343 342 343 342 339 338 340 340 338 338 337 333 330 329 329 330 332 331 329 329 329 329 329 328 327 328 328 329 328 327 326 326 326 325 325 326 327 326 323 321 321 322 322 322 321
343 341 341 342 344 344 340 338 338 338 340 341 339 338 336 332 334 341 341 340 341 340 337 338 341 341 338 336 333 331 332 331 328 328 328 327 327 328 328 328 327 326 327 327 327 327 327 324 323 323 323 323 323 324 326 326 324 322 322 323 322 321 320
347 346 345 343 341 341 340 339 338 338 340 340 340 340 338 334 334 338 338 337 339 339 340 340 339 337 334 333 332 332 333 331 327 326 325 325 326 327 328 328 326 324 325 326 326 326 325 323 322 322 322 322 323 323 324 325 324 323 322 321 320 319 319
346 343 339 335 333 333 334 334 335 338 341 340 337 335 332 329 329 330 332 335 336 336 338 338 336 335 333 332 332 332 331 329 327 327 326 327 328 327 326 325 324 322 322 323 322 322 322 322 322 322 321 322 322 322 323 324 323 322 321 320 319 319 319
339 334 331 328 328 328 328 328 329 331 332 330 327 325 325 326 326 324 325 330 334 335 337 336 334 332 331 329 330 331 330 328 327 327 328 328 327 326 324 324 323 322 322 322 321 321 320 321 321 320 321 322 322 322 323 323 322 320 319 319 318 318 319
332 330 330 329 329 328 326 325 325 325 324 323 324 325 326 328 329 327 326 330 333 334 336 336 333 330 328 327 328 329 329 328 328 327 326 326 326 326 326 326 325 324 323 322 321 320 320 321 321 320 320 321 322 323 323 322 321 320 318 318 318 319 319
330 329 330 334 335 329 324 323 324 323 322 322 324 326 327 329 331 331 329 331 333 333 334 335 333 330 329 328 329 329 329 328 327 326 325 325 326 327 327 327 327 326 324 322 320 319 319 320 321 321 322 322 322 323 322 321 320 318 317 317 317 318 319

ECMWFFLT1_850_thetae_006.txt.gz
Theta_e
344 343 345 347 346 346 348 349 347 347 348 348 349 351 353 354 354 352 345 336 331 328 322 320 328 334 336 336 338 338 336 337 338 334 331 330 329 327 328 331 333 331 329 331 333 332 328 325 325 325 325 326 325 326 328 329 327 327 327 327 327 327 328
344 343 345 346 346 346 348 349 348 347 348 349 349 351 354 354 353 351 345 335 329 327 321 321 329 333 334 336 337 338 337 338 339 334 329 330 331 330 331 333 331 329 332 334 333 331 328 328 329 326 324 323 322 323 324 325 326 327 327 328 329 329 328
344 344 344 345 346 346 348 350 348 347 349 350 350 351 353 353 352 350 345 335 329 326 322 323 330 335 335 336 336 337 338 338 337 336 334 335 336 333 331 329 329 332 335 335 334 333 333 333 330 325 322 321 322 324 326 327 328 329 328 328 329 328 327
345 345 344 345 345 346 348 350 350 350 350 349 349 351 353 352 351 349 345 336 328 325 324 324 330 334 336 337 336 337 339 339 337 335 334 334 332 328 327 329 332 335 334 334 334 334 333 332 329 325 323 323 325 328 330 331 331 330 328 327 328 328 326
347 345 345 347 346 346 350 349 350 352 352 351 350 351 352 352 350 349 346 337 329 326 324 326 329 333 337 339 338 338 339 339 337 332 329 330 330 326 327 332 334 333 332 332 331 332 331 330 328 326 325 324 326 329 332 332 331 330 328 326 326 327 326
347 347 347 348 346 346 350 349 350 352 353 354 354 353 352 351 349 349 346 339 331 328 328 329 331 333 337 339 337 337 336 335 334 329 325 325 326 325 329 332 331 330 329 329 329 330 328 326 326 325 325 324 325 328 330 330 330 331 331 329 328 327 327
346 349 349 348 347 347 347 348 351 351 350 352 356 354 351 351 351 350 347 341 335 333 333 334 334 335 336 337 336 336 335 332 330 327 324 325 326 327 329 330 329 329 330 330 331 331 329 328 328 327 326 325 326 329 329 328 330 333 333 333 332 330 327
341 346 348 349 349 348 346 349 354 354 351 352 354 353 349 350 352 350 347 343 341 340 339 339 339 337 336 336 335 335 334 334 334 332 331 330 331 331 331 330 330 330 330 331 332 332 332 331 330 329 328 328 329 329 328 328 329 332 333 333 333 332 329
337 343 348 349 349 350 349 350 354 355 353 352 352 350 348 347 349 349 345 343 343 344 343 342 341 340 338 337 336 333 332 334 337 337 335 333 334 333 333 332 331 330 329 330 331 331 331 331 331 331 330 330 330 331 331 330 329 330 331 331 332 331 330
338 344 350 349 348 350 350 349 351 352 352 352 352 351 349 344 345 347 344 341 342 344 343 342 342 342 341 338 337 334 331 332 335 336 336 335 335 334 334 332 330 330 330 330 330 330 329 330 331 330 329 330 330 330 330 331 330 329 329 328 329 329 329
338 344 348 347 347 349 350 349 350 351 351 352 351 349 347 343 343 346 344 342 343 343 343 342 342 344 341 337 337 336 334 334 336 337 336 335 335 334 334 332 331 330 329 329 330 330 330 331 330 329 329 329 329 329 329 330 330 330 329 328 327 327 326
340 345 347 349 350 351 352 353 351 351 353 352 351 349 346 344 343 345 343 341 343 343 342 341 339 341 340 338 339 339 338 337 337 338 337 336 335 334 333 332 330 330 330 331 331 331 330 329 329 329 329 329 329 329 329 329 329 329 328 328 328 326 324
340 346 349 352 354 352 354 354 353 354 352 352 352 349 346 344 344 345 343 343 344 343 341 339 337 336 336 338 339 339 338 338 338 338 337 336 336 334 334 333 332 331 329 328 328 327 327 327 329 330 330 329 329 329 329 329 329 329 329 328 329 327 325
338 343 349 355 356 353 353 354 354 354 352 353 352 349 346 347 346 344 343 343 343 341 340 339 338 336 336 336 337 337 337 337 338 338 337 336 335 334 332 332 331 329 326 325 326 326 328 330 330 330 329 328 328 328 328 329 329 330 330 329 329 329 328
338 339 346 356 358 355 353 353 353 352 351 350 350 347 347 348 346 345 345 343 341 340 340 339 336 337 336 334 334 333 333 334 336 337 336 335 334 332 331 330 331 331 329 329 329 329 330 330 330 329 330 329 328 328 329 329 330 330 331 331 330 330 329
336 337 341 351 355 354 353 352 352 352 350 349 347 346 348 348 348 347 344 342 340 339 338 336 335 337 336 331 329 329 328 330 333 335 336 335 333 332 330 329 331 333 333 333 332 330 329 329 329 330 330 329 329 328 329 329 330 329 330 331 330 329 328
334 333 336 345 350 350 351 351 350 351 352 350 348 348 349 349 348 346 343 341 340 338 335 335 336 338 336 331 329 330 329 330 333 335 335 333 331 330 328 327 331 333 334 334 333 332 331 330 329 329 329 328 328 328 329 329 328 327 328 328 328 328 327
336 334 335 340 346 349 352 352 350 350 351 351 349 348 349 349 348 345 343 342 339 337 336 336 338 339 336 331 328 331 332 334 335 336 335 334 331 329 328 329 331 333 334 335 334 333 332 330 329 328 328 328 328 328 329 328 327 326 325 326 326 327 327
337 337 338 340 343 348 354 356 353 352 353 351 350 350 351 350 348 344 344 342 338 336 337 338 339 340 337 331 326 329 332 334 336 336 335 334 332 330 331 332 333 334 335 335 335 334 332 329 328 328 328 328 328 328 327 327 325 324 324 324 325 325 326
336 337 339 340 340 344 351 355 355 354 355 353 352 353 352 351 348 345 344 341 337 337 338 339 338 339 338 332 327 329 333 334 335 335 334 333 332 332 332 332 333 334 334 335 335 333 331 329 328 328 328 328 327 327 326 325 324 325 325 325 326 325 325
337 337 336 339 339 338 346 355 356 356 356 356 355 353 351 350 350 347 342 339 339 338 338 337 337 338 340 336 333 335 337 335 335 334 333 333 332 332 332 333 334 334 334 335 335 333 330 328 328 328 328 327 326 326 326 326 325 326 325 324 325 325 324
336 337 337 340 341 339 343 353 357 357 358 359 356 353 351 351 349 343 338 339 341 338 336 336 337 339 340 339 338 339 339 337 334 333 333 332 332 332 333 334 335 335 334 334 335 334 330 328 328 328 328 327 326 326 327 327 326 325 324 323 324 324 323
335 336 337 341 344 345 345 352 357 359 358 359 356 353 352 349 343 340 339 340 340 336 336 337 339 340 340 339 339 340 339 336 335 333 333 333 333 333 334 334 334 334 333 334 334 333 330 329 329 328 328 327 326 326 328 328 328 327 326 325 325 324 323
335 335 337 342 346 349 350 354 359 359 359 359 356 353 351 345 341 341 340 338 338 337 338 339 338 337 337 337 337 338 337 336 334 333 333 332 333 333 334 333 332 332 332 333 332 332 330 329 328 328 328 328 326 327 328 328 328 327 326 327 326 324 323
336 336 340 345 347 351 354 357 359 358 359 358 354 352 347 341 340 341 338 336 337 339 340 340 337 336 334 334 334 335 336 335 333 332 332 332 333 334 333 332 331 332 332 330 330 331 331 330 329 328 328 327 326 327 328 327 327 327 327 327 327 324 322
338 338 341 344 347 351 355 357 358 358 358 356 352 349 344 340 340 341 337 335 337 338 339 339 338 337 336 335 334 335 336 335 332 331 331 331 332 334 333 331 330 331 331 329 330 331 330 329 327 326 326 326 326 327 327 328 327 327 327 327 325 322 321
338 338 338 338 342 350 355 356 358 358 356 353 349 345 342 341 340 339 336 336 337 336 336 337 337 337 336 335 335 334 335 335 334 332 331 331 333 334 333 331 330 330 329 329 331 331 328 327 326 326 327 327 327 327 327 327 327 327 326 325 323 321 321
337 336 335 335 340 349 356 357 357 355 353 349 346 343 341 340 338 337 337 336 335 334 334 334 334 334 333 333 333 332 334 334 333 332 331 332 334 333 331 329 330 331 331 330 330 329 327 326 327 328 330 329 326 325 325 325 325 325 325 323 322 321 321
338 337 337 342 347 353 357 356 352 349 348 345 344 342 340 338 337 336 336 335 336 337 336 335 334 333 332 331 331 331 332 334 333 332 332 333 334 333 330 329 330 332 332 330 329 327 326 326 327 329 330 329 327 325 323 322 322 324 324 324 323 321 320
339 338 341 348 352 354 355 352 347 343 342 341 341 340 337 336 336 335 334 336 338 337 337 336 336 335 334 333 332 332 331 332 332 333 333 334 334 332 330 330 330 330 330 330 328 328 327 328 329 329 329 328 327 326 324 322 322 322 323 324 323 322 321
335 334 338 346 350 349 348 347 345 340 340 342 340 338 337 336 335 334 335 339 340 339 338 337 335 334 333 331 332 333 333 333 334 334 334 334 332 330 329 328 328 328 328 329 329 327 327 327 328 328 328 328 326 324 322 322 322 321 320 321 322 322 322
335 333 336 342 346 344 341 342 342 339 340 343 342 340 340 338 335 335 336 338 339 338 336 334 332 331 329 329 332 334 335 335 335 334 333 331 330 329 329 328 327 327 327 328 327 326 327 328 328 328 329 327 325 323 321 321 322 321 321 321 323 323 321
338 337 338 340 341 339 338 340 339 337 338 341 342 342 341 337 336 335 334 333 333 332 332 332 331 330 329 329 332 334 336 335 334 333 331 329 328 329 328 328 327 327 327 327 326 325 326 326 327 328 328 326 324 322 321 321 321 322 322 323 323 321 319
341 342 341 340 338 336 337 339 339 337 338 339 339 339 337 335 335 333 330 329 330 331 333 335 335 336 336 335 334 334 335 334 333 332 329 327 326 327 327 327 328 328 327 326 325 324 323 321 323 324 324 324 322 322 322 322 322 322 323 323 322 319 318
343 344 343 342 340 338 338 338 336 336 338 338 339 338 335 333 333 330 328 329 331 331 333 336 337 338 338 336 335 335 335 334 332 330 329 328 327 327 328 328 327 327 326 324 324 323 322 322 322 322 321 322 321 320 321 322 322 322 323 322 320 318 316
341 342 341 339 338 337 339 338 337 338 339 338 337 334 331 329 328 326 327 330 332 333 335 337 337 336 334 334 334 333 334 332 331 329 329 329 328 328 328 328 327 326 325 325 325 324 324 323 322 320 320 321 321 320 321 321 322 323 322 320 318 316 315
339 340 339 337 334 334 336 337 336 336 334 332 331 329 328 329 330 330 329 331 331 331 331 334 335 335 333 332 331 330 330 330 330 330 329 328 327 327 327 326 326 326 326 327 326 326 324 322 320 319 320 321 321 321 322 322 322 323 321 319 316 313 314
339 340 338 334 331 330 330 329 329 329 328 327 327 328 328 330 331 330 330 331 331 330 329 329 331 333 333 332 330 329 329 330 330 330 329 327 327 327 327 327 327 327 327 327 326 325 324 322 320 321 321 321 321 322 322 322 322 321 319 316 313 312 313

ECMWFFLT1_850_thetae_009.txt.gz
Theta_e
345 347 347 347 348 348 348 348 349 349 350 351 350 350 351 352 352 352 351 348 346 344 338 329 324 321 321 322 322 326 326 324 324 321 318 316 318 321 322 321 320 319 320 324 326 328 329 328 326 325 322 323 324 323 323 324 325 324 325 325 325 326 326
345 347 346 346 346 347 348 347 348 349 349 351 349 348 350 351 350 350 349 348 347 345 338 329 322 321 322 322 322 326 327 326 325 323 320 319 319 321 322 319 318 318 320 323 327 330 330 329 326 323 322 322 322 322 321 322 325 327 327 328 327 327 327
345 346 346 344 345 346 348 348 348 349 349 349 349 348 349 349 348 347 347 348 349 346 337 327 322 322 323 322 323 325 326 326 324 322 321 320 320 322 322 321 321 322 324 328 331 331 330 329 326 324 324 323 322 323 321 323 328 330 329 330 329 328 328
345 345 345 344 344 345 347 348 348 349 348 347 347 347 347 348 347 347 347 347 349 346 336 326 321 323 324 323 323 325 325 325 324 323 320 319 322 327 327 325 323 323 326 330 331 330 329 326 324 322 322 322 323 322 322 326 330 332 331 331 331 330 329
344 345 346 344 344 344 346 348 348 349 347 346 346 346 346 347 347 348 349 349 349 346 336 326 322 324 326 324 324 324 325 324 324 323 321 319 323 328 327 323 322 324 326 328 328 328 327 324 321 322 321 320 321 322 322 325 329 332 332 332 331 331 330
343 344 346 345 345 345 346 347 348 348 347 346 347 347 348 348 348 349 351 351 350 347 337 326 324 326 327 326 326 326 325 324 322 321 320 320 321 323 322 321 323 326 327 328 328 328 327 324 324 325 324 322 324 325 324 324 326 329 330 330 330 330 330
344 344 346 346 346 347 346 347 348 348 348 347 348 349 349 350 350 351 352 351 351 348 339 328 325 327 328 328 328 326 324 323 321 318 318 318 319 319 320 322 326 328 328 329 329 328 328 327 328 328 327 327 327 327 327 327 326 327 328 328 329 330 330
345 344 344 345 346 347 346 347 348 347 349 349 349 349 349 351 351 351 352 352 350 350 341 330 326 329 330 329 328 325 323 323 321 318 318 317 319 319 321 325 329 330 330 330 329 329 329 330 330 329 329 329 329 328 328 328 328 328 328 328 328 329 329
346 344 344 344 344 345 346 347 348 348 349 349 349 350 350 352 352 352 352 351 350 349 343 332 328 329 331 330 328 325 324 323 321 318 318 319 320 322 323 327 330 332 332 331 329 329 329 330 330 330 330 330 329 328 329 329 329 328 328 328 329 329 328
344 344 343 345 344 344 346 347 349 349 350 350 350 350 352 352 352 352 352 351 350 348 344 336 330 331 333 331 328 327 326 324 321 319 318 320 323 325 327 329 331 332 331 330 330 330 330 331 330 330 330 330 329 329 329 329 329 328 328 329 329 328 328
343 343 343 344 345 345 346 346 348 350 350 352 351 351 352 352 352 352 352 351 349 347 345 339 334 335 336 332 331 330 328 325 324 321 320 322 325 329 331 332 333 333 331 330 330 330 331 330 330 330 330 329 329 329 329 330 329 329 329 329 328 328 328
343 344 344 345 345 345 346 346 347 348 349 351 352 352 352 352 353 352 352 351 349 347 344 341 338 338 337 335 334 332 328 328 327 324 322 324 329 332 333 334 334 333 331 330 330 330 330 330 330 329 328 328 329 329 329 330 329 329 328 328 328 328 328
344 346 347 347 348 347 347 347 347 348 349 350 352 352 353 353 353 352 351 350 349 347 344 342 341 341 339 338 337 333 329 329 327 326 327 328 330 332 332 333 332 332 330 330 330 331 330 329 327 325 326 328 330 329 328 328 327 328 328 328 329 329 329
342 345 346 348 349 349 348 348 347 347 349 350 351 352 353 354 353 352 351 350 348 346 344 343 343 343 341 341 337 332 330 329 328 330 331 332 333 331 330 330 329 329 329 328 329 328 327 326 324 324 326 328 328 327 327 327 327 328 328 328 329 329 329
340 344 346 346 347 348 348 348 348 348 350 351 352 352 352 353 352 351 351 350 346 343 343 344 343 343 343 341 334 330 329 330 333 334 333 334 334 331 329 330 329 327 326 324 324 325 324 324 324 323 325 326 327 328 328 327 327 327 327 327 328 327 328
338 343 348 348 346 347 348 348 349 349 350 352 353 354 353 352 352 350 349 348 345 341 342 343 342 342 343 339 332 329 329 331 335 336 335 336 335 331 329 330 328 325 323 321 323 324 325 326 327 326 326 327 328 329 328 327 326 326 327 327 327 326 326
335 338 341 344 348 349 349 350 350 349 350 351 351 352 352 352 352 350 348 347 344 343 342 343 342 342 340 336 333 331 329 329 334 336 336 337 335 330 328 328 326 323 322 322 323 325 328 329 329 329 328 328 329 328 327 326 326 326 326 326 326 326 325
336 336 336 338 343 349 351 352 352 351 352 352 351 352 352 352 351 350 347 346 344 343 343 342 341 339 337 335 334 332 328 327 332 335 335 335 333 329 328 327 325 324 324 324 326 328 330 331 332 331 329 329 328 328 327 327 326 326 326 325 325 324 324
335 335 335 335 336 343 350 354 354 354 353 353 353 354 353 353 352 350 349 345 344 343 343 341 339 337 336 336 336 333 327 327 331 333 331 329 328 327 327 327 326 325 325 327 329 331 332 333 334 332 330 329 328 328 327 327 326 325 325 325 325 324 325
335 335 336 335 334 336 342 347 351 352 353 353 353 354 354 354 353 351 349 347 344 343 343 341 338 337 336 337 337 334 329 329 331 329 326 325 326 326 326 325 325 326 327 330 331 333 334 334 334 333 330 328 328 328 328 327 327 326 325 326 327 326 326
335 335 333 335 335 335 337 339 343 346 350 353 354 354 353 352 352 351 349 345 343 341 340 338 337 336 336 337 338 336 335 335 331 327 326 327 327 327 326 326 327 327 329 331 333 333 334 335 335 334 331 329 328 328 328 327 327 327 327 328 328 328 327
333 332 333 334 336 337 338 336 337 343 351 355 355 353 352 351 351 348 343 341 339 337 337 337 336 337 338 337 338 338 339 337 330 327 328 328 328 328 328 329 329 329 331 333 334 334 334 334 334 334 332 329 328 328 328 328 328 327 327 328 328 328 327
332 332 334 335 338 340 340 341 346 351 355 356 355 353 352 351 350 346 342 339 337 336 336 336 336 338 339 337 339 340 341 336 330 327 328 328 329 330 330 330 331 331 332 333 334 333 333 332 332 332 331 329 328 328 328 328 327 327 326 327 327 327 327
332 334 335 336 340 344 345 351 358 358 357 356 353 351 349 348 346 346 343 340 337 335 335 335 337 339 337 334 338 341 342 338 333 329 328 328 329 331 331 332 332 332 333 333 333 332 331 330 330 330 330 330 329 329 328 327 327 326 326 326 326 326 327
335 337 339 339 342 343 345 351 357 357 357 355 351 347 346 344 343 341 339 338 336 334 335 337 339 339 334 333 337 340 340 339 337 332 329 331 332 332 332 332 332 333 332 331 331 331 330 330 330 331 330 329 328 327 327 327 327 326 325 325 325 326 327
337 338 340 341 340 339 344 350 354 355 356 354 352 350 348 346 345 341 339 341 340 337 337 339 340 337 333 334 337 338 338 339 338 335 334 335 335 334 333 333 333 333 332 331 331 331 330 330 330 331 330 327 326 326 326 327 327 325 323 324 324 325 326
338 337 337 338 338 337 342 349 353 354 351 351 352 351 348 346 346 344 343 344 343 341 339 340 340 337 334 337 339 339 339 339 337 337 337 337 335 333 333 333 333 333 332 332 332 331 329 329 330 330 328 326 326 326 326 328 328 326 323 322 323 324 325
337 338 336 335 334 334 338 347 352 351 347 346 348 350 348 345 345 343 342 340 339 338 338 337 337 337 338 340 340 338 337 336 335 336 337 335 333 332 333 333 333 333 332 331 330 329 327 327 329 329 327 327 326 327 327 328 328 326 323 322 323 324 324
337 339 339 338 339 342 347 351 351 346 343 342 345 348 347 345 342 340 338 337 336 338 338 337 336 338 339 339 338 337 336 336 336 337 337 334 332 331 332 333 333 332 331 329 328 327 326 326 328 328 327 327 327 327 328 328 326 324 322 322 322 323 323
339 341 343 345 347 351 353 351 347 343 341 342 345 347 346 341 338 337 336 336 339 340 340 337 335 337 339 339 339 339 338 337 337 338 336 334 332 332 333 333 332 331 330 329 328 326 325 326 328 328 327 327 327 327 327 327 325 323 321 321 322 322 322
338 339 343 347 349 350 349 348 345 342 341 342 344 345 342 338 337 337 337 340 342 342 340 338 336 338 338 338 338 337 337 337 337 337 335 333 332 333 333 332 331 330 330 329 326 325 326 327 327 327 327 327 328 327 327 326 324 322 321 321 322 322 322
338 336 340 345 348 348 347 345 343 341 340 340 339 341 340 338 339 341 341 342 342 341 340 339 337 336 336 335 334 332 332 333 334 335 335 334 334 334 333 332 332 331 329 327 326 326 327 327 326 327 327 327 326 325 325 323 322 321 321 321 321 322 322
336 334 337 342 346 347 344 342 340 340 341 341 341 341 341 340 340 340 339 337 335 335 335 335 333 332 332 332 331 329 328 330 332 335 336 335 334 333 332 331 331 329 327 326 326 327 327 326 326 326 324 323 322 322 322 321 321 321 320 320 321 322 322
337 336 338 342 344 344 342 341 340 341 342 344 343 342 341 339 338 336 334 333 331 331 331 330 329 330 331 330 329 327 327 329 331 333 333 333 332 332 331 329 329 327 326 327 327 328 327 326 325 324 323 322 322 321 321 320 320 320 320 321 322 322 321
339 338 339 340 341 342 341 341 341 342 344 343 341 339 338 337 335 334 334 332 331 330 330 329 329 330 328 327 325 325 326 328 329 331 332 332 331 331 329 328 327 327 327 327 328 327 326 325 325 324 324 323 321 320 320 320 320 321 321 321 322 321 319
340 339 339 339 338 338 340 341 340 340 341 340 339 338 336 334 333 333 332 330 329 329 328 327 325 324 323 325 326 327 328 330 332 332 332 331 330 330 328 328 328 328 328 327 326 326 326 326 325 325 324 322 321 320 320 320 321 321 322 322 322 320 316
340 340 340 339 338 337 338 339 338 337 338 338 337 336 334 332 331 331 330 329 329 328 326 323 323 324 327 331 332 331 332 333 333 332 331 330 329 329 328 328 327 327 327 326 325 326 326 325 325 324 322 321 320 320 320 321 321 322 322 321 319 315 312
341 340 339 338 338 337 336 337 337 337 336 336 334 332 330 328 327 327 328 329 329 327 323 322 324 328 331 333 333 332 332 332 333 331 330 330 329 328 328 327 326 326 326 326 326 326 326 325 324 322 321 320 320 320 321 321 321 321 320 318 315 312 311

ECMWFFLT1_850_thetae_012.txt.gz
Theta_e
350 352 353 352 353 352 351 350 349 349 347 348 348 346 346 346 345 343 341 339 338 338 336 333 333 331 328 325 323 321 321 320 319 317 315 314 315 316 317 319 320 321 320 318 319 323 324 325 326 326 324 323 322 322 322 321 322 324 326 326 325 324 324
349 351 353 352 352 352 351 351 349 348 347 347 347 345 347 348 346 344 341 338 338 339 337 334 333 331 329 326 322 321 321 320 320 319 315 315 315 316 317 318 319 319 318 318 320 323 324 324 324 324 323 323 323 323 322 322 322 325 328 328 326 325 324
347 349 351 351 352 351 352 351 350 349 347 348 347 345 346 346 344 341 339 338 340 342 341 337 334 332 330 326 321 321 322 320 320 319 316 316 316 316 317 317 318 318 318 319 322 324 325 324 324 323 322 322 322 322 322 322 322 323 327 328 327 326 326
346 348 348 349 350 350 350 351 350 349 348 348 348 345 344 343 341 340 339 338 340 342 342 339 337 335 332 326 322 322 322 321 321 319 317 316 316 316 318 318 318 318 320 322 324 325 325 323 321 321 322 322 321 321 322 322 321 321 324 327 327 327 326
345 348 348 348 349 348 350 350 350 349 348 348 348 346 344 343 342 342 340 341 342 341 340 339 338 338 335 327 322 321 322 321 321 320 317 316 316 317 318 317 318 320 323 325 325 325 326 324 321 322 326 325 324 324 325 324 323 322 323 324 326 326 327
345 345 347 348 347 348 349 349 349 349 347 349 349 347 346 346 346 345 343 344 346 345 345 343 341 340 337 327 322 322 323 321 321 320 318 317 316 317 317 318 320 323 326 326 326 327 327 325 323 325 329 328 327 327 327 326 326 325 325 325 326 326 327
344 345 345 346 346 347 348 348 348 348 348 348 349 349 349 349 347 347 346 347 347 347 348 346 344 343 339 328 322 323 322 321 321 320 319 318 317 318 318 318 321 325 326 327 327 327 328 328 327 328 329 328 327 327 327 327 327 327 328 328 327 327 328
343 344 345 346 346 346 346 347 347 347 349 350 350 351 350 350 349 349 349 349 349 349 348 346 345 345 340 328 322 323 323 321 322 321 319 318 317 318 318 318 322 325 326 326 328 328 329 329 329 329 329 328 327 328 328 329 328 328 329 329 328 328 328
343 343 344 345 345 345 346 346 347 348 349 349 350 350 350 350 350 350 350 349 350 349 347 346 346 346 341 329 322 324 323 322 322 321 319 318 317 318 318 319 323 326 325 326 327 329 329 329 330 330 330 329 328 328 329 329 328 328 329 329 329 328 328
343 343 344 345 344 346 345 345 348 348 348 349 349 350 349 351 351 351 351 351 351 349 347 348 348 347 342 329 323 325 324 322 322 320 319 319 317 318 319 321 325 326 326 327 329 329 329 329 329 328 328 328 328 329 329 329 328 328 329 329 329 329 328
342 343 344 344 345 345 344 345 347 347 347 348 348 349 350 350 351 351 352 352 350 349 349 350 349 348 342 330 325 326 325 322 322 321 320 319 318 320 321 324 327 328 329 330 330 330 329 329 328 328 329 329 330 330 329 329 328 328 328 329 329 329 328
343 343 342 344 345 344 344 344 345 346 347 347 348 349 350 350 350 351 351 352 351 349 350 350 351 349 341 332 328 328 326 323 322 322 322 321 320 322 324 326 328 330 331 332 331 330 329 329 329 329 330 330 330 329 328 328 329 328 328 328 327 327 327
343 342 341 344 343 344 345 344 344 345 346 347 347 348 349 349 349 350 351 351 350 351 351 351 351 348 341 335 331 329 326 325 326 326 325 322 321 322 323 326 329 332 333 333 332 331 330 330 330 331 331 329 328 326 326 327 327 326 326 326 327 326 327
342 341 341 343 343 344 345 344 346 345 346 347 346 348 349 349 349 350 350 350 350 352 352 351 351 349 343 336 331 330 330 330 330 329 326 323 322 321 322 323 327 332 334 333 332 330 330 331 331 330 328 325 324 323 323 324 325 326 326 327 326 326 327
342 341 341 342 341 343 343 344 345 345 346 347 346 348 349 349 350 351 351 351 351 352 352 351 350 349 343 335 332 333 336 335 333 329 326 323 322 322 322 322 328 333 334 331 329 328 328 329 328 326 324 323 323 323 323 324 325 326 327 326 326 326 326
342 341 340 341 340 341 342 342 344 344 345 346 347 349 350 349 350 351 352 353 352 352 351 351 350 347 342 337 334 334 335 334 333 330 326 324 324 324 323 323 329 334 331 327 326 326 326 325 325 324 324 324 324 324 324 324 324 326 326 326 325 325 326
341 339 338 338 338 340 340 342 344 343 345 345 346 348 349 351 352 351 352 352 352 352 351 350 349 345 341 339 337 334 333 334 334 332 329 327 327 327 324 324 328 330 326 324 325 325 325 324 324 324 324 325 326 326 325 325 326 326 326 326 325 325 326
343 341 341 341 340 342 343 344 345 346 346 346 346 348 350 352 352 352 352 353 352 352 349 347 347 343 340 340 338 335 337 337 336 335 332 327 326 327 326 326 326 325 323 323 324 324 324 323 324 324 326 327 328 328 327 327 327 327 327 327 326 326 326
341 341 341 342 341 343 342 342 342 342 344 346 346 348 349 350 351 351 353 352 351 349 347 346 345 343 341 342 340 339 340 338 336 337 332 325 324 328 329 328 325 324 323 323 323 323 324 324 325 326 328 330 331 331 330 328 328 328 327 328 327 327 327
336 336 336 336 336 337 336 335 336 336 339 345 350 350 350 350 351 352 351 350 349 347 346 345 344 343 343 343 342 341 340 338 337 335 329 324 325 330 332 328 324 324 324 324 324 324 325 326 327 328 330 332 333 333 332 330 328 328 328 328 327 327 327
334 334 333 333 333 334 335 335 335 336 338 344 350 351 351 351 352 352 350 347 344 343 342 341 342 343 343 343 342 340 338 337 337 335 328 324 327 332 332 327 323 324 325 325 325 325 326 328 329 331 333 334 334 334 333 330 328 328 328 328 328 328 327
335 332 331 333 334 335 336 335 336 338 339 342 344 347 351 353 352 352 350 347 343 340 339 339 340 342 343 343 342 339 336 337 338 336 329 324 328 333 330 325 323 323 324 325 325 326 328 329 331 332 333 333 333 333 332 331 329 329 329 328 328 327 327
333 332 332 334 334 336 336 336 337 339 340 340 340 343 349 352 353 353 351 349 345 342 339 339 340 341 342 343 342 338 336 337 338 336 330 326 329 331 328 324 323 324 324 325 326 328 328 329 331 334 334 332 331 330 330 330 329 329 328 328 328 327 326
332 332 334 335 337 338 339 340 341 339 338 338 342 346 349 351 353 353 351 348 346 343 341 340 339 340 341 343 342 339 337 336 337 336 332 329 329 328 325 323 323 324 326 327 328 329 330 331 333 334 333 331 329 329 330 330 328 328 328 328 327 328 326
334 336 338 338 339 340 339 339 338 338 339 343 347 348 348 350 353 352 350 349 347 345 343 341 340 339 340 342 342 339 338 338 338 337 335 333 331 328 325 323 324 325 327 329 330 330 331 333 334 333 331 330 329 329 330 329 328 327 327 327 327 328 326
338 338 339 340 339 338 338 337 336 338 342 346 348 348 347 349 351 350 349 347 346 345 344 343 342 340 339 341 340 339 338 338 338 335 333 334 335 333 329 326 325 326 329 331 333 332 332 333 333 331 330 329 329 330 330 329 327 326 326 327 327 327 325
338 338 338 338 338 337 337 337 339 342 344 346 346 345 346 349 350 349 348 346 345 344 343 342 341 340 340 340 339 338 338 338 337 334 331 332 336 337 335 332 330 331 332 333 333 333 333 333 331 330 329 328 328 329 330 328 327 326 326 326 326 325 323
335 335 335 335 336 336 336 338 340 343 344 344 342 341 344 348 349 348 348 347 346 345 343 340 340 340 340 339 337 336 337 338 337 334 332 336 340 340 338 336 335 335 335 335 334 334 333 331 330 329 328 327 328 329 329 327 326 325 326 326 325 323 322
336 336 336 336 336 337 339 340 343 345 344 341 339 340 344 348 349 349 347 346 346 345 343 341 340 339 339 338 336 336 337 338 338 336 337 340 342 341 339 338 337 338 336 334 334 333 332 331 329 328 327 327 328 329 327 325 325 325 325 325 323 322 321
335 336 338 339 340 342 344 345 347 346 343 339 338 341 345 348 349 348 346 344 343 343 342 341 340 340 339 337 336 337 337 337 337 337 338 340 341 339 338 337 337 337 336 334 333 333 332 331 329 328 327 328 328 327 326 324 323 323 324 323 321 321 321
335 335 336 340 345 348 349 350 348 344 341 339 340 343 347 349 348 345 342 339 339 339 338 338 338 338 337 336 337 338 338 336 335 335 335 335 336 337 338 338 336 336 335 333 333 332 331 329 328 327 327 327 327 326 325 324 323 322 321 320 320 320 321
336 336 336 338 342 346 347 347 346 343 340 340 342 346 347 346 344 341 338 337 337 337 336 337 338 338 337 337 337 338 338 337 337 337 336 334 335 337 337 336 334 334 333 333 332 331 329 327 326 326 326 326 326 325 324 323 322 322 321 320 320 320 321
336 337 336 336 338 340 342 344 344 342 341 341 344 345 343 341 339 337 338 339 339 339 339 339 338 337 337 336 335 334 334 335 336 337 336 335 336 336 336 334 333 333 332 332 331 330 328 326 325 326 326 326 325 324 324 323 323 322 320 320 320 320 321
336 337 337 337 338 338 341 343 344 341 341 342 344 342 338 338 339 339 340 341 339 338 337 336 335 335 334 333 332 331 331 331 332 333 334 335 335 334 334 333 333 332 331 330 329 328 326 326 326 327 327 326 325 324 324 324 323 321 320 320 320 320 321
338 337 337 339 340 341 343 343 342 341 339 341 341 339 338 342 343 340 338 336 334 332 332 331 331 332 332 331 330 328 328 329 331 333 334 334 334 333 333 333 332 331 330 328 327 327 326 327 327 327 326 325 324 324 323 322 322 320 320 320 320 321 321
338 338 339 341 341 343 342 341 340 339 339 340 340 339 339 339 338 335 333 333 332 331 331 331 330 329 331 332 328 325 327 329 331 332 333 334 334 334 333 332 331 330 328 327 327 327 327 327 326 325 325 324 323 322 321 321 320 320 319 320 321 321 321
339 339 340 340 342 342 341 340 341 341 339 339 339 338 336 334 333 333 333 331 330 330 331 331 329 326 327 326 323 324 328 329 330 331 332 332 333 333 332 331 329 328 328 328 328 328 327 326 325 324 324 322 321 321 320 320 320 319 319 320 322 321 319
338 340 340 340 342 342 341 341 342 340 337 337 337 336 334 333 332 332 332 331 330 329 330 330 327 324 324 323 324 327 329 328 328 329 330 331 332 332 331 330 329 328 329 328 327 327 326 325 325 324 323 321 321 321 321 320 320 320 320 321 320 318 315

ECMWFFLT1_850_thetae_015.txt.gz
Theta_e
347 349 351 352 352 352 352 353 353 354 354 353 352 350 348 346 343 338 334 333 331 330 329 328 328 328 327 326 325 325 324 321 319 318 317 316 315 316 315 315 315 315 316 317 318 318 318 320 322 323 325 324 323 323 322 322 322 321 321 321 322 322 322
346 348 350 352 352 352 352 353 354 354 353 352 351 349 347 344 340 336 333 331 329 326 327 327 327 327 327 326 326 325 324 321 320 319 317 316 315 315 315 315 316 316 316 317 317 317 317 319 321 322 323 323 322 323 322 322 322 321 322 322 322 323 322
346 347 349 350 352 351 352 353 354 354 352 351 350 348 347 343 338 334 332 331 328 326 326 327 328 328 327 327 327 326 324 321 320 320 318 316 315 315 315 315 316 316 317 317 317 316 316 318 321 322 322 323 322 322 321 321 321 321 321 322 323 323 323
345 347 348 349 350 350 351 352 352 353 352 350 348 346 344 342 339 334 331 330 329 326 326 326 327 328 328 328 328 327 324 321 321 320 319 317 316 315 315 316 317 317 317 317 318 318 319 320 321 321 322 322 321 320 321 323 323 323 322 322 322 322 322
344 347 348 349 350 350 351 352 352 352 352 351 349 346 344 343 341 337 333 331 330 327 326 326 328 329 329 329 330 329 326 322 321 321 319 318 316 315 316 316 317 317 317 319 320 320 321 320 320 322 324 325 323 322 324 326 326 326 325 325 325 325 325
344 346 348 349 350 350 351 352 352 351 351 351 349 346 344 343 342 340 335 333 332 330 330 331 331 331 331 331 333 334 330 325 323 322 320 319 318 316 316 316 317 317 319 322 323 323 323 320 319 323 327 328 327 327 328 328 328 328 328 328 328 328 327
343 345 346 347 349 349 350 351 351 352 351 351 350 349 347 345 344 342 339 336 334 333 334 334 333 333 333 334 337 337 333 327 324 322 322 322 320 317 316 317 317 318 321 324 325 325 325 322 322 325 328 328 328 328 328 328 328 328 328 328 328 329 328
343 345 345 346 347 347 349 350 351 351 352 351 352 351 349 346 343 343 342 339 336 335 335 334 334 333 333 336 341 340 335 329 324 323 324 326 324 319 316 317 317 319 324 325 326 326 326 327 327 328 329 328 328 328 328 329 329 329 328 328 329 329 329
343 344 343 345 345 345 348 349 349 351 351 352 351 350 349 347 344 342 341 340 339 338 336 335 336 337 338 340 342 342 339 333 326 324 327 328 327 321 317 317 318 320 324 325 326 328 327 328 328 328 328 328 327 328 328 329 329 329 329 328 328 329 329
343 342 343 344 343 345 346 347 349 349 350 351 350 350 350 348 346 344 342 342 341 340 337 338 342 344 345 345 344 346 345 337 328 327 330 330 328 322 317 318 318 321 324 325 327 328 328 328 328 328 329 328 327 328 329 329 330 329 329 328 328 328 328
342 342 344 343 343 345 345 346 347 347 348 350 349 350 350 349 347 346 345 345 343 341 341 344 347 348 348 349 349 349 347 338 330 329 331 330 328 323 319 318 318 321 324 325 327 328 328 327 327 328 328 327 327 328 329 329 329 329 328 328 328 328 327
342 342 343 343 344 344 344 345 346 345 346 347 347 349 349 349 349 347 346 347 346 345 346 347 349 350 350 351 350 346 343 340 332 327 326 328 327 322 319 319 319 321 324 325 327 328 328 327 327 327 327 326 327 327 327 328 327 327 327 327 327 326 325
342 342 342 343 343 343 344 344 344 345 345 345 346 347 347 348 348 347 347 347 347 348 348 349 351 352 351 350 347 342 340 339 333 324 323 330 330 324 321 320 320 322 324 326 328 328 327 327 327 327 326 326 326 326 326 326 326 325 325 325 324 324 325
341 342 341 343 342 342 343 343 343 345 344 345 346 346 347 347 347 348 348 347 348 349 350 352 352 352 350 348 346 343 340 337 332 324 323 332 333 327 324 324 323 324 324 327 329 327 325 326 327 327 326 326 326 326 326 325 325 325 324 324 324 325 325
340 341 341 342 342 342 343 343 343 343 343 344 345 345 347 347 347 349 348 348 350 350 351 353 352 352 350 348 347 346 341 338 332 324 323 329 328 326 328 328 325 325 325 327 329 325 323 325 327 328 327 327 328 327 325 324 324 324 324 324 325 325 325
340 341 341 342 342 342 343 342 342 342 343 344 344 345 346 346 347 348 348 349 350 350 353 353 352 352 351 349 348 346 340 335 330 324 323 325 325 328 332 330 325 323 325 328 328 323 322 325 328 328 328 329 329 327 325 324 325 325 325 325 326 326 326
341 341 342 342 342 342 342 343 343 343 344 343 344 345 345 346 347 347 348 349 349 351 353 353 352 352 351 348 345 342 336 332 330 327 324 325 329 332 333 331 327 323 324 328 325 322 323 327 329 329 328 328 327 326 326 326 326 326 326 326 327 327 327
341 341 342 341 342 342 342 342 343 343 343 343 344 345 345 346 347 347 348 349 350 352 352 352 353 352 350 347 343 341 338 334 332 329 326 327 332 332 331 332 327 322 324 327 323 322 326 328 329 330 328 327 326 326 326 327 327 328 328 327 326 327 327
341 341 342 341 342 341 340 341 342 342 343 343 345 346 345 347 347 347 348 349 349 351 351 352 352 351 349 347 343 342 342 338 332 329 327 329 332 333 332 331 325 322 326 326 324 325 327 328 329 329 327 326 325 326 327 328 329 331 331 329 327 327 328
340 340 341 341 341 341 340 340 339 338 338 339 340 341 342 344 346 347 348 348 349 351 351 351 352 351 349 347 343 343 344 340 334 330 329 329 330 332 333 327 322 323 326 326 327 328 328 328 329 328 327 326 326 328 329 329 329 331 332 332 329 328 328
340 341 340 340 341 339 337 336 335 334 334 335 335 334 335 338 341 345 347 349 349 350 350 350 351 350 348 344 343 343 344 341 337 333 331 331 332 334 333 326 321 322 325 328 331 330 327 327 328 327 327 327 328 329 330 329 329 329 331 332 331 329 328
338 339 338 337 336 334 333 333 333 334 335 336 334 333 333 334 337 341 345 348 350 350 351 351 350 349 347 345 344 343 342 341 338 334 333 334 335 335 333 326 321 322 327 332 334 332 328 327 327 328 328 328 329 331 330 329 329 329 330 331 330 329 329
335 334 333 333 332 332 333 334 334 336 337 337 334 333 334 335 337 341 345 348 350 350 350 350 350 349 348 346 346 344 341 340 337 334 333 334 335 334 330 323 321 326 331 334 334 333 329 327 327 328 327 328 330 332 331 330 330 330 330 330 330 330 329
333 332 331 332 332 333 334 334 335 336 338 337 334 334 335 336 338 342 346 348 350 350 350 350 349 349 348 347 346 343 341 339 337 334 332 333 335 335 330 324 323 329 332 333 333 332 329 328 328 327 328 329 331 333 333 332 331 330 330 329 329 329 327
332 332 331 333 334 335 336 337 337 337 337 336 334 334 335 336 338 341 344 347 348 349 349 349 349 349 348 347 346 343 341 340 337 333 332 333 335 336 332 326 325 328 331 333 334 332 330 329 329 329 329 331 333 333 333 332 331 330 329 329 329 328 326
332 332 333 335 337 338 338 337 336 335 335 334 335 337 338 337 337 338 340 344 347 348 348 348 348 348 347 346 345 342 341 340 339 336 333 333 335 336 335 331 329 331 334 335 335 334 331 329 329 331 332 332 332 332 332 331 330 329 329 329 329 328 326
336 337 337 337 338 337 335 335 333 334 336 337 339 339 338 336 336 336 339 342 345 347 348 348 347 346 345 344 343 341 340 340 341 338 334 332 334 336 337 336 334 335 336 336 335 334 334 332 332 333 334 333 332 330 330 330 329 328 329 329 328 326 324
337 337 336 336 336 335 334 336 336 337 339 341 341 339 337 336 335 336 340 343 346 347 347 346 346 344 343 343 342 340 340 340 341 338 333 332 334 336 337 338 337 336 336 335 335 335 336 336 335 335 335 334 332 330 329 329 328 328 328 328 325 323 322
335 334 334 334 335 335 336 338 339 340 342 342 340 338 337 337 338 341 345 346 346 346 346 345 344 343 342 341 340 340 340 340 340 338 334 333 335 336 337 338 337 336 335 335 336 337 337 336 335 334 334 333 331 330 329 328 328 328 327 326 324 322 321
335 336 336 336 337 337 338 340 341 343 344 342 340 339 340 341 343 345 346 346 346 345 345 344 343 342 341 340 339 339 339 339 340 338 336 336 336 335 336 336 336 336 336 335 336 337 337 336 334 333 332 331 330 329 328 328 328 327 326 325 323 322 321
336 336 337 337 339 341 342 344 346 346 345 343 341 342 342 343 345 345 345 345 344 343 342 342 342 341 340 339 338 338 338 338 338 337 336 336 335 334 333 333 334 336 337 337 337 338 336 335 334 331 330 329 329 328 328 328 327 326 325 324 323 322 321
334 335 336 336 339 341 342 345 347 346 345 343 342 343 344 344 345 345 344 344 343 341 340 340 340 339 339 338 338 337 337 337 336 335 335 335 335 334 332 333 335 337 338 338 339 339 336 334 332 331 330 329 329 328 327 327 326 325 324 323 323 322 321
327 331 335 338 340 342 343 344 344 344 344 344 342 343 345 345 345 345 343 342 341 340 339 338 337 337 337 337 336 336 336 335 335 334 335 335 336 335 334 335 338 339 339 338 338 338 336 332 330 330 329 328 327 327 326 326 325 325 324 323 322 321 320
325 330 336 338 340 342 342 343 344 344 344 343 343 344 345 346 346 344 341 339 338 338 338 337 337 337 337 337 337 336 335 333 333 333 334 334 334 335 335 337 338 338 338 337 336 336 334 331 329 329 328 327 327 326 326 325 325 324 323 322 321 320 320
326 330 335 337 338 340 341 343 343 344 344 343 344 345 345 346 344 341 339 337 336 336 336 336 335 334 334 334 334 332 329 328 327 327 328 329 331 332 333 335 337 337 337 335 334 333 331 329 328 327 327 327 326 326 325 324 323 322 321 320 320 320 320
329 331 334 337 338 339 341 342 342 343 343 343 344 344 344 343 341 338 338 337 334 332 332 332 332 331 331 330 329 326 324 322 322 321 323 327 330 330 331 333 335 335 334 333 332 331 329 327 327 327 327 327 326 325 324 322 321 320 320 320 320 320 320
329 330 333 336 338 339 340 340 341 342 342 343 343 341 340 339 338 338 338 336 333 332 332 332 332 331 330 328 325 323 322 322 323 324 325 328 330 331 332 333 333 333 333 332 331 329 327 327 327 327 327 326 325 324 323 321 320 320 320 320 320 320 320
332 332 334 337 338 338 339 339 340 341 340 341 341 339 337 338 339 339 338 336 335 335 335 333 330 329 328 325 323 324 324 325 326 328 329 330 330 331 333 333 333 332 332 331 330 328 327 327 327 327 326 325 325 324 322 321 320 320 319 319 320 320 320

ECMWFFLT1_850_thetae_021.txt.gz
Theta_e
346 347 347 347 346 347 346 346 346 346 346 346 346 346 346 347 346 347 347 348 348 348 348 347 348 349 347 346 345 343 342 341 340 340 338 335 331 330 331 331 333 334 333 332 330 328 327 327 326 324 321 319 319 321 322 323 323 322 321 321 321 321 321
345 346 346 346 346 346 346 345 345 346 346 346 346 346 347 347 346 347 347 347 348 348 348 348 349 348 346 343 341 339 338 338 338 338 335 333 332 331 332 332 334 334 331 328 326 325 326 325 323 321 320 318 318 320 322 323 323 322 322 322 321 321 321
344 345 345 345 345 345 346 346 345 346 346 346 346 345 346 347 346 346 346 346 347 347 348 349 349 348 345 340 337 334 335 335 336 335 334 333 335 334 332 332 332 333 331 326 322 322 322 321 320 320 319 318 318 321 322 323 322 322 322 321 321 321 321
341 342 343 343 344 344 345 346 345 345 346 345 345 345 345 345 345 346 346 346 346 347 348 349 349 348 344 338 334 333 334 334 333 333 332 333 335 333 331 330 330 331 329 323 320 320 320 319 319 319 318 317 318 321 323 323 322 321 322 322 322 322 322
340 340 342 342 343 343 344 345 345 346 346 345 345 344 344 345 346 346 347 346 346 346 347 349 349 348 343 336 333 333 332 332 331 331 332 333 334 333 331 329 328 328 326 322 320 319 317 317 318 318 317 317 318 321 322 322 321 321 323 324 324 324 325
340 340 341 341 342 343 343 344 345 345 346 345 344 344 344 345 346 346 346 347 346 346 347 348 349 347 341 334 333 333 332 331 330 330 331 331 332 332 329 325 325 325 324 322 320 318 316 316 317 318 318 317 318 321 322 322 321 322 325 327 327 327 327
340 339 340 340 341 342 342 343 345 346 345 346 345 345 345 346 346 347 347 347 346 346 346 347 349 348 341 335 333 333 332 330 329 330 330 330 331 330 327 325 324 324 323 321 318 316 316 316 317 318 318 318 319 321 322 321 320 323 327 328 328 328 328
338 339 339 340 339 340 341 342 344 345 345 346 346 345 346 346 346 347 347 347 346 346 346 346 347 345 342 339 337 334 331 329 329 330 330 331 330 330 329 327 326 326 325 321 318 316 316 317 318 319 320 318 319 321 322 321 322 324 328 329 329 329 329
338 338 338 339 339 340 341 342 343 344 344 345 345 345 345 345 346 346 346 346 346 346 346 346 345 343 343 344 340 335 331 330 329 329 331 332 331 331 331 328 328 330 328 322 318 316 316 319 321 321 320 318 319 322 325 324 325 326 328 329 329 330 330
337 337 338 339 339 340 341 342 342 343 344 345 345 345 346 346 346 346 346 347 347 347 346 346 345 344 345 346 342 337 332 330 329 329 331 332 332 333 334 332 331 332 330 323 318 318 320 320 320 321 320 318 319 323 326 327 327 328 328 329 330 330 330
336 336 338 339 339 340 341 341 342 343 344 344 344 345 346 346 346 346 346 347 347 346 346 346 347 346 346 346 345 341 335 331 329 329 330 331 332 334 335 336 334 332 329 324 318 321 326 324 321 322 320 319 320 322 325 327 328 328 328 329 329 329 330
336 337 338 339 339 340 341 341 342 343 343 344 344 345 345 345 346 346 346 347 346 347 347 346 347 347 347 347 346 344 339 334 330 329 329 330 332 334 335 337 337 333 328 323 319 323 329 327 323 322 321 322 324 323 323 327 328 328 328 328 329 329 330
337 337 337 339 340 340 341 342 342 343 343 344 344 344 345 345 346 346 346 346 347 348 349 348 348 348 348 348 347 345 343 339 334 329 328 330 334 336 336 338 340 336 328 322 320 324 328 327 324 323 322 326 328 324 322 327 329 328 328 328 329 329 330
338 338 338 339 340 340 341 341 342 343 343 344 344 344 345 345 346 347 346 346 347 349 349 348 348 348 349 350 349 348 345 344 341 336 334 338 340 338 338 340 341 337 330 323 321 323 327 327 324 324 326 329 328 324 323 327 329 328 328 328 329 329 329
338 338 339 339 339 340 341 341 341 342 342 343 344 344 345 345 346 346 346 347 348 349 349 348 348 349 350 350 350 349 348 348 347 345 344 345 344 340 340 342 343 341 332 325 322 323 326 327 325 325 328 329 325 323 325 328 329 329 329 329 329 330 329
338 338 339 339 339 340 340 340 341 341 342 343 343 343 344 344 345 345 346 347 347 348 348 348 349 349 350 350 350 350 351 351 351 350 349 348 346 344 343 340 342 342 335 326 324 325 326 327 325 324 327 327 323 322 326 329 329 329 329 329 330 330 327
338 338 339 339 340 340 341 341 341 341 342 342 342 342 343 343 344 345 346 346 346 347 347 347 349 349 349 350 350 350 351 352 352 352 352 350 347 346 345 340 339 340 336 328 324 325 326 326 324 325 326 326 323 322 326 330 330 329 330 330 330 330 327
338 339 339 339 340 340 340 341 341 341 341 341 341 341 341 342 344 344 345 345 345 345 346 346 347 348 348 349 349 350 351 351 352 352 352 352 349 347 347 344 340 339 336 332 328 327 327 326 326 328 327 325 324 324 327 330 329 330 331 331 331 330 327
337 338 339 339 340 340 341 341 341 341 340 340 339 339 340 342 342 343 343 343 343 344 344 344 345 346 347 347 348 349 350 350 352 352 352 352 350 348 347 343 336 333 335 337 334 330 327 325 327 331 327 324 325 326 328 328 326 328 332 332 332 331 329
339 338 339 339 340 340 340 340 340 341 340 340 340 341 342 342 342 342 341 341 341 342 342 343 343 344 345 346 347 348 349 350 351 352 351 351 350 349 347 342 336 332 333 336 335 331 327 325 329 330 325 323 324 326 328 328 325 328 332 332 332 331 330
338 339 338 339 339 340 340 340 341 341 341 341 342 341 341 340 338 337 336 336 336 337 338 339 340 342 344 345 347 348 349 350 350 351 351 351 350 349 347 344 339 334 332 333 334 331 327 327 328 327 323 324 325 325 327 327 327 330 333 332 332 332 331
337 338 339 339 340 340 340 340 340 341 341 341 341 340 338 335 333 332 332 332 332 333 335 336 338 340 343 344 346 347 348 349 350 350 350 350 349 348 346 345 342 337 333 333 334 332 330 328 326 324 324 326 326 326 326 327 328 331 332 333 333 332 332
336 337 338 339 339 340 340 340 340 340 340 340 338 336 333 331 331 330 330 331 332 331 332 334 335 338 341 343 345 346 348 349 349 349 349 349 348 348 347 345 342 338 336 335 335 333 331 327 324 323 325 328 327 326 326 328 329 330 332 334 334 333 332
336 338 339 339 339 340 340 339 339 339 337 336 334 333 332 331 331 330 331 332 332 332 332 333 334 336 340 343 344 346 347 348 348 348 349 348 348 347 347 345 341 338 336 335 334 333 330 326 323 323 326 329 331 329 327 327 328 329 332 334 335 334 333
337 338 339 340 339 339 338 337 336 335 334 334 333 332 331 332 332 332 332 332 332 333 333 333 334 338 341 343 345 346 347 347 348 348 348 348 347 347 346 344 342 338 336 335 334 333 330 326 323 324 327 332 334 332 327 326 327 329 332 335 335 335 333
339 339 340 340 339 337 336 335 335 334 334 333 332 332 332 332 333 333 332 333 333 333 333 335 338 341 343 344 346 346 347 347 347 347 347 347 347 346 344 343 341 338 336 335 333 331 328 325 324 327 331 334 335 331 327 327 327 330 333 336 336 335 334
340 340 339 338 336 336 335 335 335 336 336 334 333 332 333 333 333 333 333 333 333 333 335 337 340 341 343 345 346 346 346 346 346 346 346 346 345 344 343 341 338 337 335 334 331 328 326 325 327 331 335 335 334 330 328 327 328 331 334 335 335 335 334
337 337 337 336 337 336 336 337 337 336 335 334 333 333 333 334 334 334 334 333 334 336 338 338 340 341 343 345 345 346 346 346 346 345 345 345 344 342 340 338 336 336 334 331 329 326 325 328 332 335 336 335 334 333 330 329 330 333 335 334 333 334 333
337 337 337 337 337 336 335 335 335 334 332 332 333 334 335 335 334 334 334 334 336 337 338 339 340 342 344 345 345 345 345 345 345 345 344 344 343 341 339 337 336 335 332 329 328 328 329 333 335 336 337 337 337 337 335 333 332 332 333 334 334 333 332
334 333 332 332 332 332 331 330 330 331 330 330 332 336 336 335 335 335 335 336 337 337 338 340 342 343 345 345 345 345 344 344 344 344 343 343 342 340 338 337 336 335 331 329 330 331 333 334 335 335 336 338 338 338 337 334 332 329 330 332 333 332 332
331 331 331 331 331 330 329 328 329 328 329 332 335 337 338 337 337 338 338 338 337 337 338 341 343 345 345 345 345 344 344 343 343 343 342 341 341 340 338 337 337 335 331 330 331 332 334 335 334 334 337 338 338 338 336 335 333 330 330 331 331 331 330
333 332 331 331 332 331 330 330 331 331 333 336 338 339 339 339 338 339 339 339 338 339 340 343 344 345 345 344 344 344 343 342 342 342 341 341 340 339 338 337 337 335 332 331 332 333 335 334 333 334 337 338 337 337 335 334 332 331 330 330 329 329 328
333 331 329 328 327 327 327 327 330 333 335 337 338 339 339 339 340 340 340 340 340 340 342 343 344 344 344 343 343 342 342 341 341 340 340 340 339 339 338 338 338 336 334 332 331 332 334 334 333 335 337 337 337 336 334 332 330 330 329 328 328 328 327
328 327 327 328 329 328 327 327 330 334 336 337 338 339 339 340 341 341 341 341 341 342 343 344 343 343 342 342 341 341 341 340 340 339 339 339 338 338 338 338 338 337 335 333 332 332 333 333 333 335 336 336 335 334 332 330 328 328 328 327 327 326 325
326 326 327 330 332 331 332 333 334 336 337 338 338 339 339 340 341 341 341 342 342 343 344 343 341 341 340 340 340 340 339 339 338 338 338 338 338 338 338 338 338 338 336 335 334 334 334 333 334 334 334 334 332 330 329 328 327 327 327 326 325 324 323
328 329 330 332 334 335 335 336 336 337 337 338 338 338 339 340 340 341 341 342 343 344 343 340 338 338 338 338 338 338 338 338 338 338 338 337 337 337 337 337 337 337 336 336 334 334 333 333 333 333 332 331 329 328 327 327 327 326 325 325 324 323 321
332 332 331 332 334 335 335 336 336 337 337 337 338 338 338 339 340 340 341 343 344 342 339 337 336 336 336 337 337 337 337 337 337 337 336 335 335 335 336 335 335 335 334 333 332 332 332 332 332 331 330 329 328 327 327 327 326 326 325 324 323 322 321
335 334 334 334 334 334 334 335 336 336 337 337 338 338 338 339 339 340 342 343 342 339 336 335 336 336 336 335 335 336 336 335 334 334 334 335 335 335 334 333 332 331 330 331 331 332 332 331 331 331 330 330 328 327 327 327 326 326 325 324 323 322 320

ECMWFFLT1_850_thetae_024.txt.gz
Theta_e
353 354 354 354 355 354 352 351 352 351 348 346 345 345 344 345 345 344 344 344 344 345 346 347 347 347 348 347 347 347 346 346 346 346 346 345 343 342 342 340 340 340 340 340 341 338 335 336 336 334 330 323 318 318 319 321 321 323 326 325 323 323 325
352 352 353 354 355 355 352 348 347 347 346 346 345 344 344 345 345 345 345 344 344 344 345 347 347 348 348 347 347 347 346 346 346 346 347 346 344 343 340 339 339 339 337 335 336 335 333 335 335 333 330 323 318 317 318 319 322 328 333 331 327 326 328
351 352 352 354 355 355 354 349 345 344 345 345 344 344 344 344 344 344 345 346 344 344 345 346 347 348 348 348 347 347 347 346 347 346 346 346 345 342 340 340 340 339 337 333 331 333 334 336 335 331 326 322 319 318 318 319 324 330 333 331 328 328 330
349 351 352 353 354 355 355 352 347 343 344 344 342 343 344 343 343 344 345 346 345 344 344 345 347 347 348 348 348 347 348 348 347 346 345 346 344 341 340 340 337 338 338 332 330 334 336 336 334 329 324 322 321 318 318 320 323 327 328 326 326 328 327
350 351 351 352 354 355 356 354 351 347 345 345 344 342 343 343 343 344 344 345 346 344 343 344 346 347 347 348 348 348 348 348 348 347 345 345 344 340 337 337 335 337 338 333 331 335 336 334 332 328 324 322 319 317 318 320 321 323 324 322 322 324 324
350 350 350 351 353 354 353 352 353 350 346 345 344 342 343 343 343 344 343 344 345 345 345 344 345 346 347 348 348 348 348 348 348 347 345 344 342 337 335 336 337 337 337 334 330 330 332 333 331 325 320 318 318 318 318 318 320 321 321 321 322 323 324
349 351 351 351 352 354 353 351 353 354 351 349 346 344 343 344 343 343 344 344 344 345 346 345 345 345 346 347 348 348 348 349 348 347 345 342 340 336 335 336 336 334 334 334 328 327 330 331 326 320 316 318 323 323 319 317 319 320 319 319 322 325 325
350 352 352 351 351 352 353 353 353 355 355 353 350 348 346 346 347 345 344 344 344 345 345 345 345 345 345 346 347 348 348 348 349 346 344 341 338 336 336 336 335 333 334 335 332 330 330 326 319 316 317 321 324 323 320 317 318 319 319 318 322 326 326
350 352 352 351 351 350 352 353 353 354 355 353 352 351 349 348 349 347 345 345 344 344 345 345 346 345 345 346 346 347 348 348 349 347 345 341 336 336 337 336 336 336 334 335 334 332 327 320 316 316 318 322 324 321 319 319 318 319 320 319 321 325 327
349 353 352 350 349 349 351 353 354 352 352 351 351 351 350 349 349 347 345 345 345 345 344 344 346 346 346 345 345 346 347 348 349 348 346 342 335 335 336 333 332 336 336 336 336 333 324 318 317 317 318 323 325 322 320 319 319 320 321 321 322 325 326
348 352 353 351 350 350 351 354 353 349 347 348 348 349 348 347 348 347 345 345 346 346 344 344 346 347 346 345 345 346 346 347 348 347 346 343 337 336 336 332 329 333 336 337 337 334 326 319 317 317 320 324 324 322 320 319 321 323 321 322 325 326 327
350 351 352 351 350 351 353 356 353 347 345 345 345 346 346 344 345 345 343 344 346 346 346 346 347 349 349 345 345 345 346 346 346 346 346 345 342 340 339 337 334 331 334 337 338 335 328 321 317 317 320 323 324 323 320 319 323 324 322 324 327 328 327
350 352 351 350 351 353 354 355 352 347 344 344 344 344 344 342 343 344 343 343 344 345 349 350 350 351 350 348 348 348 346 345 346 346 346 346 347 346 343 342 339 333 333 337 338 335 330 324 319 318 320 324 325 325 322 320 323 324 323 325 328 328 328
349 351 352 350 351 354 355 351 349 348 346 344 344 344 343 342 343 343 343 343 343 346 351 353 353 351 350 350 351 350 347 346 347 347 348 350 350 350 349 348 344 338 335 336 339 337 333 328 322 318 321 325 327 326 323 322 325 326 324 325 328 329 329
350 352 353 350 346 349 353 350 347 347 346 343 343 343 342 343 343 343 344 343 343 346 351 353 352 350 350 350 350 350 348 348 348 350 352 354 352 352 353 351 348 343 335 333 338 340 338 334 327 320 320 325 327 326 323 324 327 327 324 324 326 329 329
351 350 352 349 342 339 347 351 349 346 345 343 342 342 341 342 342 343 343 344 344 346 347 349 349 348 349 348 348 349 350 349 350 352 354 355 354 353 353 352 350 348 341 334 335 339 341 339 331 322 321 324 326 324 323 325 328 328 324 323 326 330 330
350 349 350 349 343 337 344 352 352 346 344 342 340 341 341 341 342 343 343 344 345 345 345 346 347 346 346 347 348 349 351 351 351 352 354 354 354 353 354 354 352 350 348 342 337 337 342 343 335 324 322 324 325 325 324 326 329 329 325 324 327 331 331
348 349 350 349 345 338 342 350 350 344 341 340 340 340 341 340 342 343 343 344 343 344 346 345 346 346 346 347 348 348 351 352 351 353 354 354 353 353 354 354 353 350 349 347 343 339 341 343 337 326 322 323 325 326 327 327 329 330 326 325 329 331 331
348 350 351 349 345 339 341 347 347 342 339 340 339 340 341 341 342 341 342 343 343 344 345 344 345 346 345 347 348 347 349 350 350 353 354 354 352 353 353 353 353 352 349 347 345 341 339 340 337 328 322 323 325 326 327 327 329 329 325 326 330 331 331
348 350 352 352 349 346 346 350 350 344 340 340 340 340 341 341 341 342 342 343 343 344 344 344 345 345 345 345 346 345 346 347 349 353 355 354 351 351 352 352 352 352 350 348 347 344 339 337 335 328 322 322 324 326 326 328 330 328 325 326 330 332 332
348 351 353 354 355 353 348 347 347 344 340 340 340 341 341 341 342 343 343 343 343 344 343 343 343 343 342 342 342 343 344 345 348 354 355 352 350 351 351 351 351 351 350 348 347 346 341 336 333 330 326 323 324 326 326 328 330 328 325 326 329 331 333
347 350 351 351 352 351 347 344 345 343 340 340 341 341 341 342 343 343 343 343 342 340 339 339 339 339 340 341 341 342 344 344 347 353 354 351 350 350 350 350 351 350 349 348 347 345 341 336 333 332 328 324 325 327 327 328 330 327 324 325 327 330 333
344 346 347 345 345 344 342 342 343 342 340 340 342 341 342 343 343 342 341 339 338 337 336 337 337 337 338 339 340 341 343 344 348 351 352 351 349 349 349 349 349 349 348 348 346 344 341 338 336 333 329 326 327 329 329 330 331 328 325 325 326 330 333
343 344 345 344 344 343 340 339 340 340 340 342 342 341 342 342 340 338 336 335 335 335 335 335 334 335 336 338 340 342 343 347 351 352 351 350 349 348 347 348 347 348 348 347 345 343 341 340 337 333 330 329 331 332 332 332 331 328 327 327 327 329 333
344 347 346 343 342 341 340 340 340 340 341 342 341 341 340 336 334 333 333 334 335 334 334 333 332 334 337 338 341 343 344 347 351 352 350 349 349 347 346 346 345 346 347 346 343 341 339 337 335 333 333 334 334 334 334 333 330 330 331 330 327 328 331
346 347 346 346 344 341 340 340 340 340 341 341 339 337 334 332 332 333 333 334 335 334 333 333 333 335 337 338 340 343 344 345 349 350 350 349 348 346 346 345 343 344 345 343 340 338 337 335 334 335 336 336 336 335 334 331 329 331 333 330 327 328 330
350 350 350 350 346 341 339 340 341 341 340 338 335 332 331 331 332 332 333 334 334 333 333 333 334 335 336 337 340 341 343 345 347 349 349 348 347 346 345 344 343 342 342 340 338 337 336 336 336 337 337 336 337 337 335 332 331 334 334 330 328 330 330
352 352 350 346 342 340 340 340 340 339 336 334 333 332 332 332 332 332 333 333 333 333 333 333 334 334 335 337 339 340 343 346 347 348 347 347 346 345 344 344 343 341 340 339 338 337 337 337 337 337 338 338 337 334 332 332 334 335 333 330 329 330 330
353 350 346 342 341 341 341 339 337 336 335 334 334 333 333 333 333 333 333 333 334 334 334 334 334 334 335 337 339 340 344 346 346 346 345 346 345 344 344 344 341 340 340 339 338 338 338 337 337 336 337 339 336 332 332 335 336 335 332 331 330 331 331
352 350 348 345 341 340 339 337 337 336 335 335 334 334 334 334 334 333 333 334 335 334 335 335 335 335 337 338 340 342 344 345 345 345 345 345 344 344 343 342 340 339 339 338 338 338 337 336 335 334 336 338 337 335 336 338 337 336 334 332 331 331 330
344 344 343 341 338 338 336 335 335 335 335 336 335 334 335 335 335 334 334 335 335 336 337 336 336 337 339 341 343 344 344 345 344 344 344 344 343 343 342 340 339 339 338 338 338 337 337 336 335 334 336 338 338 338 338 338 336 335 333 332 331 329 329
342 341 339 336 334 333 332 332 332 332 335 337 338 337 336 336 335 335 336 336 337 338 338 338 339 340 341 343 344 344 344 345 344 343 343 343 342 342 341 340 340 339 339 338 337 336 337 338 337 336 338 339 338 337 338 337 335 333 331 330 329 329 329
342 342 340 339 338 337 336 336 336 335 335 337 339 340 339 337 337 337 337 338 339 339 338 339 341 342 343 345 345 345 345 344 343 343 342 342 341 341 341 340 340 339 339 338 337 337 338 339 338 337 338 338 336 336 337 337 335 332 331 329 329 329 330
338 338 337 337 339 339 338 338 338 338 338 337 338 340 339 338 338 339 339 340 340 339 339 341 342 343 344 345 344 344 344 343 343 342 342 342 341 341 340 340 339 339 338 338 338 337 337 338 338 338 337 337 337 336 336 335 334 332 331 330 330 330 330
334 334 333 333 334 334 334 335 336 337 337 337 337 338 338 339 339 340 340 340 340 340 341 342 342 342 343 344 344 343 342 343 342 342 342 341 341 340 340 340 339 339 338 338 338 337 335 335 337 337 336 336 336 336 335 335 333 331 330 329 329 329 328
332 333 332 333 334 334 334 335 335 336 336 337 337 337 338 338 339 340 340 340 341 342 342 341 339 340 342 343 343 342 342 342 342 341 341 341 341 340 339 339 339 338 338 338 337 335 334 333 335 335 334 335 336 335 335 335 332 329 328 327 327 327 327
333 334 333 333 333 333 333 333 335 335 335 336 336 337 338 338 339 340 341 342 343 342 340 337 337 339 341 342 341 340 341 341 341 341 341 340 339 339 338 338 337 337 337 337 336 336 335 334 334 334 334 334 334 333 333 332 330 328 326 326 326 325 325
333 333 334 333 332 330 331 332 333 333 334 335 336 337 338 339 340 341 342 342 341 339 337 336 337 341 342 342 340 339 340 340 340 340 339 338 337 337 336 336 335 335 335 335 335 335 334 334 333 333 333 333 332 330 329 329 328 327 326 326 325 325 324

ECMWFFLT1_850_thetae_027.txt.gz
Theta_e
350 348 347 352 357 357 356 358 358 358 358 358 358 357 355 353 355 359 360 360 356 346 341 343 344 345 346 346 347 347 347 347 347 347 348 348 346 346 347 347 347 347 349 348 346 347 347 346 345 344 343 342 341 339 334 332 334 336 335 329 327 330 330
350 348 346 351 356 358 357 358 359 359 359 359 359 358 355 354 356 358 360 359 352 342 339 342 343 344 345 346 347 348 348 347 347 347 347 348 347 345 345 347 347 345 345 347 349 348 347 347 344 343 343 342 340 337 332 328 327 329 329 323 321 323 323
346 349 350 352 356 359 358 359 359 360 359 359 360 359 357 356 354 352 355 358 350 340 339 340 342 344 344 346 346 347 348 348 347 347 347 348 347 344 344 346 346 343 342 344 347 349 348 346 342 341 342 341 337 332 326 324 322 322 323 322 321 322 321
345 349 352 355 357 358 359 359 360 360 359 359 360 359 356 354 352 346 347 352 347 340 340 340 341 343 344 346 346 346 347 348 348 347 346 348 348 345 344 344 342 342 344 343 345 349 349 344 338 336 337 334 330 324 320 322 322 320 320 321 321 321 320
346 349 352 355 358 359 360 361 361 361 360 359 360 359 356 352 350 346 345 346 344 341 341 341 341 342 344 345 346 347 347 347 348 347 346 347 349 348 344 341 340 342 344 343 345 348 346 340 335 335 333 326 321 319 316 319 321 320 319 321 321 320 320
343 347 351 355 357 358 360 361 361 362 360 358 360 360 356 353 351 348 346 344 343 343 342 343 343 342 343 345 346 346 347 348 348 347 347 346 348 349 345 341 340 341 342 344 347 345 340 335 333 334 329 320 318 321 318 317 319 319 319 321 321 320 320
339 344 350 354 356 358 359 361 361 361 360 358 360 360 358 354 352 350 349 345 342 343 344 344 344 343 342 343 345 346 347 348 347 347 347 347 347 348 346 344 343 342 342 345 347 343 336 331 329 328 323 318 320 323 320 319 320 319 318 319 320 320 319
337 344 352 354 355 357 358 360 361 360 360 358 359 362 359 357 355 352 352 350 345 345 346 346 345 343 343 342 343 346 346 347 348 347 347 347 348 348 347 346 346 344 343 344 344 340 333 330 327 325 320 317 319 321 319 321 324 321 318 318 319 319 319
337 346 354 354 353 354 357 359 360 361 360 358 359 362 360 358 357 354 354 354 351 349 348 349 349 345 343 343 343 344 345 346 347 347 347 347 347 348 348 347 345 342 341 342 342 337 333 331 329 325 321 317 318 318 319 323 326 322 318 318 319 319 319
337 343 353 356 352 352 354 358 360 360 361 360 360 362 361 359 357 356 356 357 355 353 351 352 354 351 346 343 343 343 344 345 346 346 347 348 348 348 348 348 345 340 339 343 343 338 333 333 332 328 323 319 318 318 319 323 325 321 318 318 319 319 319
335 342 355 357 352 352 354 357 359 360 362 361 360 363 362 359 358 357 356 357 357 356 354 354 356 359 355 347 344 344 344 344 346 346 347 348 349 350 348 348 346 343 341 342 343 339 335 334 333 329 325 321 318 317 318 321 324 322 319 318 318 319 320
339 349 360 358 353 354 355 355 359 361 362 363 362 364 363 360 360 358 356 355 356 357 358 357 356 360 361 356 350 347 345 344 345 346 346 347 350 352 352 347 346 349 347 340 338 339 337 334 332 331 329 324 319 317 317 320 325 323 319 318 319 320 320
354 358 361 358 354 355 355 356 360 362 364 365 364 364 364 363 362 360 357 355 355 358 360 360 359 360 362 363 359 354 348 344 345 345 346 348 349 352 353 348 346 352 351 342 337 339 337 333 332 332 331 328 323 319 317 320 324 323 319 319 321 322 322
362 361 360 358 355 356 357 358 361 364 365 366 365 365 366 364 362 361 358 353 354 359 360 361 362 362 363 365 365 360 353 346 346 348 350 352 351 351 351 347 348 353 353 348 343 340 337 334 332 331 332 332 329 322 318 320 324 323 320 320 321 323 323
359 361 362 360 356 356 359 361 363 366 366 366 365 365 367 365 361 360 358 355 355 359 361 363 364 363 364 366 365 362 357 354 357 358 359 359 357 355 354 349 349 353 354 352 349 345 342 338 334 333 334 336 333 324 318 320 323 324 321 321 323 324 324
348 352 356 360 360 358 358 361 366 366 366 367 366 365 365 362 357 354 357 358 358 360 362 364 364 363 362 363 364 362 359 360 363 363 363 363 360 359 359 356 351 353 354 355 353 350 348 344 342 341 339 339 336 327 319 319 323 324 323 323 324 325 325
337 336 342 352 360 360 356 360 367 367 365 363 360 362 362 357 350 352 357 359 357 358 362 364 362 360 359 359 361 363 360 360 364 364 362 362 361 359 360 359 355 354 356 356 354 352 350 348 346 345 343 341 337 330 323 319 322 325 324 323 325 325 325
333 334 336 337 349 359 358 360 363 362 362 359 352 355 359 354 348 351 358 359 355 357 363 364 361 357 358 359 358 361 360 360 364 365 362 362 361 359 359 358 357 356 356 355 354 352 351 348 346 345 343 342 338 334 326 320 322 326 324 323 324 324 325
333 334 335 334 344 357 361 359 354 352 359 360 348 346 353 354 348 350 358 358 353 355 362 364 360 355 355 358 357 358 360 360 364 365 362 361 361 359 358 357 356 356 354 353 354 353 351 349 346 345 344 342 341 337 329 321 322 326 324 323 324 326 327
334 333 334 336 342 352 361 362 357 356 362 363 353 350 358 362 357 354 357 355 350 353 359 359 356 352 352 354 354 354 358 362 364 364 362 361 359 358 357 356 355 354 353 353 354 353 353 350 348 347 345 343 342 338 329 322 322 325 324 323 324 327 329
335 334 333 334 339 349 359 363 363 365 367 366 363 361 362 364 362 356 354 351 348 351 353 352 351 350 348 350 351 354 359 363 365 362 360 359 358 357 356 355 355 354 353 353 353 353 353 351 350 348 346 344 343 338 329 323 325 328 326 324 323 326 329
335 334 333 336 342 349 359 362 363 365 366 367 366 362 360 363 365 361 355 350 348 348 346 347 349 349 348 350 351 353 357 362 363 362 360 359 357 356 355 354 355 353 352 352 352 352 351 350 350 349 345 343 341 336 330 327 330 331 327 325 325 327 329
334 333 333 339 347 354 355 355 361 365 365 366 365 364 365 367 367 363 356 351 348 346 345 346 348 348 348 348 348 349 354 357 359 359 359 358 356 355 354 353 353 352 351 350 351 350 349 349 349 348 346 343 339 335 332 330 330 328 325 325 326 328 329
334 333 335 343 354 360 353 349 359 365 363 365 367 365 363 365 366 362 356 350 347 345 346 347 347 347 347 346 347 348 348 349 350 353 356 356 355 354 353 352 351 351 350 349 349 349 347 346 348 347 345 343 340 336 333 330 328 326 325 325 326 329 329
338 335 339 348 356 360 353 348 358 364 363 364 364 357 353 359 364 361 353 347 345 344 346 348 348 348 348 348 347 344 341 341 344 349 353 355 354 354 352 351 350 349 348 348 347 347 345 344 343 342 342 341 339 337 334 331 329 327 327 327 329 330 329
338 335 342 351 356 359 356 354 360 365 365 364 359 350 350 359 362 358 350 346 347 349 351 351 351 348 344 342 340 336 335 338 341 346 351 354 354 353 351 350 348 347 347 346 346 345 343 342 340 339 340 340 338 336 335 334 332 331 330 331 332 331 329
344 342 346 352 356 361 362 362 365 365 364 364 360 353 354 360 361 358 351 348 352 358 359 354 349 342 336 334 335 335 337 340 343 347 351 353 353 351 349 349 348 346 345 345 344 343 342 340 338 338 339 339 338 337 336 337 337 335 334 334 333 331 331
348 349 353 357 360 361 362 363 364 364 365 365 363 360 360 362 360 354 351 355 361 362 358 350 341 334 334 336 337 338 340 342 343 347 351 352 351 350 349 348 347 345 344 344 343 342 341 340 339 338 338 338 338 338 338 338 338 336 335 335 333 332 332
354 357 360 361 360 361 363 365 366 366 366 365 363 364 365 363 356 350 352 357 358 352 344 338 334 333 336 338 339 341 343 343 343 346 350 350 350 349 348 347 345 344 343 343 342 341 340 339 338 338 338 338 339 339 339 339 338 337 336 335 334 334 334
361 362 362 361 361 363 364 365 363 362 362 363 363 364 362 355 347 345 347 346 341 336 334 334 334 336 337 337 339 344 346 345 345 348 350 349 349 348 347 345 344 343 342 341 341 340 339 339 339 338 339 340 340 339 339 339 337 336 335 334 334 335 334
360 360 360 360 362 362 362 361 361 361 362 362 360 356 350 341 337 337 336 334 333 333 335 335 336 337 337 337 339 343 346 347 347 348 349 348 347 347 345 344 343 343 342 342 341 340 340 340 340 340 340 340 340 339 338 338 337 335 334 335 335 335 333
358 359 360 360 359 359 359 359 358 357 356 353 347 341 338 334 333 333 333 334 336 335 335 336 338 338 338 338 340 342 345 347 348 348 347 346 345 346 345 344 343 343 342 342 342 341 341 341 340 340 340 338 338 338 338 339 337 336 337 337 335 334 333
358 357 357 356 355 354 353 351 349 347 346 345 341 337 335 335 334 334 334 335 336 336 336 337 338 338 337 338 342 345 347 347 347 347 346 345 345 345 344 343 343 343 342 342 341 341 341 340 340 340 339 338 337 338 338 337 336 337 337 336 334 332 332
359 359 358 357 356 354 351 350 350 349 348 348 344 337 335 337 337 336 337 337 337 337 338 339 339 338 338 340 344 347 347 346 346 345 345 344 344 344 344 343 343 342 342 342 341 341 340 339 339 339 339 337 337 337 337 336 336 337 335 333 332 331 330
357 358 358 358 357 354 351 350 349 346 346 347 346 342 342 343 341 340 340 339 339 339 340 340 341 343 344 345 346 346 346 345 345 345 344 344 344 343 343 343 342 342 342 341 341 340 339 339 339 339 340 338 337 338 337 336 335 336 334 332 331 330 330
352 353 354 353 350 346 345 344 343 342 344 347 348 348 349 349 349 348 346 342 340 341 340 340 343 346 347 347 346 345 345 345 344 344 344 343 343 343 342 342 341 341 341 341 340 339 339 339 339 339 339 338 337 337 337 336 335 334 333 333 332 330 330
350 350 350 349 347 344 342 340 339 338 340 344 345 346 349 351 351 351 348 344 342 342 341 343 346 347 347 346 344 344 344 344 343 343 343 342 342 342 341 341 340 340 339 340 339 338 338 338 338 338 337 337 335 334 334 335 335 333 331 331 331 330 330
347 348 349 348 347 345 342 340 339 338 339 341 341 341 344 347 346 345 344 344 344 342 341 344 347 347 345 344 343 342 342 343 343 344 343 342 341 341 340 340 340 339 339 339 339 338 337 336 335 335 335 334 332 331 332 334 335 333 330 329 328 329 328

ECMWFFLT1_850_thetae_030.txt.gz
Theta_e
350 348 348 348 349 350 351 351 352 353 356 355 354 356 355 356 356 358 359 360 360 360 357 355 352 345 340 341 343 345 345 345 344 343 343 343 344 346 347 347 346 344 342 343 342 343 345 347 348 346 345 345 343 339 330 319 317 324 329 333 337 332 324
349 348 347 347 349 351 352 352 353 354 357 357 355 356 356 356 357 357 358 359 360 360 358 355 353 346 340 340 342 344 346 347 346 344 344 344 343 344 345 345 343 342 343 345 344 342 342 344 346 344 342 342 341 334 323 316 316 319 323 326 329 326 323
348 348 347 346 349 352 353 353 353 355 357 357 356 356 356 356 356 356 357 358 359 360 359 356 353 346 340 340 342 344 346 347 347 346 346 345 344 343 344 345 343 341 344 346 346 344 341 342 343 342 339 336 334 328 320 317 316 318 322 323 322 322 321
347 349 349 348 349 351 352 353 354 357 358 358 357 356 356 356 356 355 355 356 358 359 359 358 353 346 342 341 343 345 346 347 347 347 347 347 345 343 344 345 344 343 344 345 347 347 344 343 341 340 338 333 329 325 320 317 316 317 320 321 321 321 321
348 349 349 347 347 348 351 353 355 358 360 359 358 357 357 357 356 354 354 355 356 357 357 356 353 347 343 343 343 345 346 346 347 347 348 348 346 344 344 344 343 344 344 345 346 346 345 344 341 338 337 333 329 325 321 317 317 317 318 322 322 321 321
351 350 348 346 346 347 348 351 354 359 360 360 360 359 358 358 357 355 354 354 356 357 357 357 354 349 344 343 344 346 347 347 347 347 348 349 348 345 344 343 342 342 343 343 345 345 344 343 342 338 336 333 329 326 321 317 317 318 318 321 323 322 322
347 346 346 346 348 348 349 352 356 359 361 361 360 360 360 360 358 356 356 355 356 359 359 356 353 350 344 342 345 346 347 347 347 347 348 350 349 347 344 342 341 341 342 342 344 344 343 342 341 339 337 333 329 326 321 317 317 319 319 319 321 321 321
343 343 345 346 348 350 351 355 357 359 360 361 362 362 361 361 358 356 358 357 356 360 360 354 350 349 344 342 344 346 346 347 347 346 348 349 349 348 347 345 343 342 342 343 344 343 342 341 340 339 337 334 330 326 322 318 317 319 320 321 320 319 319
342 342 345 346 347 348 349 351 353 352 355 359 362 363 362 361 359 357 358 359 358 358 357 353 350 347 345 343 344 345 346 349 348 346 346 348 348 348 347 347 347 346 345 345 346 346 344 341 339 338 337 335 331 328 324 320 317 318 321 323 323 320 319
344 346 347 347 347 349 349 349 349 348 350 358 362 361 362 362 360 359 359 359 359 357 353 354 353 349 346 345 345 345 347 349 350 348 346 346 346 346 347 349 350 349 349 349 349 348 346 342 341 340 339 337 334 330 326 321 318 317 320 324 325 322 319
346 347 349 348 349 351 350 348 348 349 353 359 362 361 362 363 361 361 359 358 360 359 354 356 357 354 349 346 347 348 347 348 350 348 346 345 345 344 345 351 354 352 350 350 351 351 348 345 344 343 342 340 336 332 328 323 319 318 319 323 325 323 320
347 346 349 351 352 351 350 346 347 352 358 362 363 361 362 363 362 362 360 359 360 360 358 358 358 358 355 349 349 350 346 346 348 347 345 345 345 345 347 353 356 356 353 350 351 353 351 348 346 345 344 342 339 335 330 326 322 319 319 321 324 323 321
351 350 350 354 354 351 350 347 347 354 360 362 362 361 362 363 363 363 361 359 359 359 358 358 357 359 359 356 353 351 346 345 346 345 344 345 345 347 351 355 357 358 358 353 351 353 352 348 347 347 345 344 342 338 334 329 325 321 318 320 323 323 322
357 359 356 357 355 352 351 351 352 356 361 363 362 362 362 363 363 363 361 358 357 358 358 357 357 358 360 361 359 354 348 345 345 344 344 343 344 347 352 356 357 358 360 358 355 354 353 351 348 348 347 346 344 342 338 333 328 323 319 319 321 324 323
358 365 362 358 355 353 352 353 357 360 361 363 362 361 362 364 363 362 361 358 356 356 357 357 357 357 359 361 362 358 351 347 345 344 344 343 345 347 350 355 358 359 359 360 358 357 357 355 353 351 349 348 347 344 341 337 332 326 320 318 320 323 323
349 356 361 360 357 353 350 352 356 358 361 363 362 362 362 364 364 363 361 359 356 355 357 358 357 357 358 360 362 360 356 351 347 346 346 347 347 348 350 353 358 359 360 360 359 359 358 357 356 354 352 350 348 346 343 340 336 330 323 319 318 321 323
338 343 355 360 359 352 346 349 355 358 360 361 361 362 362 363 364 363 362 361 357 355 356 358 358 358 357 360 361 361 358 355 352 351 350 350 350 351 352 355 358 360 361 360 359 359 358 357 357 355 353 352 350 347 344 342 340 335 326 321 320 321 323
337 343 352 356 356 354 349 347 352 356 357 358 360 362 363 364 365 364 363 363 360 357 357 358 359 358 358 359 361 362 360 356 355 356 355 354 354 354 356 358 359 361 361 360 359 359 359 358 357 356 354 353 350 348 347 345 343 338 332 327 323 322 322
335 341 347 345 346 353 354 350 349 350 350 352 356 358 360 363 365 364 363 363 362 360 359 359 360 360 359 360 362 363 362 358 359 361 360 358 357 357 359 360 360 361 361 359 358 359 359 358 357 356 354 352 350 349 347 346 344 341 337 331 324 321 321
336 336 341 343 344 351 356 355 352 348 347 348 350 352 356 362 366 365 364 364 364 362 361 362 363 361 360 361 363 364 363 362 363 362 361 360 359 359 360 360 361 361 360 359 358 358 358 358 356 356 354 352 350 348 347 346 346 343 340 334 325 321 321
338 335 336 342 349 354 355 357 357 353 350 349 350 354 358 361 365 366 365 365 365 363 361 363 364 363 362 363 363 364 365 365 364 362 361 361 360 360 361 360 360 361 360 358 358 357 358 358 356 355 354 352 350 348 347 347 346 344 341 337 327 322 321
335 336 336 336 345 352 352 351 354 354 352 353 355 358 360 361 365 368 367 365 364 363 362 364 365 364 363 363 363 365 366 365 363 361 361 361 361 361 361 360 360 360 359 357 357 357 357 357 355 355 354 352 349 348 347 346 345 344 343 337 328 322 322
332 334 335 333 335 343 345 342 346 350 352 355 358 359 361 363 366 369 368 366 364 364 364 365 365 365 364 364 365 366 367 365 363 361 361 361 361 360 360 360 360 359 357 356 355 355 355 354 354 354 354 352 349 348 347 346 344 343 342 335 325 322 324
331 331 333 334 332 334 339 340 342 346 349 353 356 359 362 365 367 369 369 367 366 365 365 366 367 368 367 367 367 367 367 365 362 361 361 359 359 359 360 360 358 356 355 355 354 353 353 353 353 353 353 350 348 347 347 345 343 342 340 333 325 323 325
332 331 331 333 331 332 338 340 341 347 352 355 357 359 362 365 367 369 369 369 366 365 366 368 370 370 367 367 368 366 364 363 362 361 360 356 355 357 358 356 355 354 354 354 354 353 352 352 352 352 351 348 347 346 345 344 342 340 338 335 329 326 328
333 333 332 332 332 334 339 342 344 351 357 358 358 359 362 365 369 371 370 369 368 368 369 369 370 369 366 367 368 366 364 364 362 360 358 356 356 357 355 352 349 350 351 352 352 352 351 350 350 350 348 346 345 344 343 343 342 340 339 337 333 331 329
337 336 333 334 339 343 349 354 354 356 358 358 358 362 365 367 370 371 371 370 370 369 368 368 369 368 367 368 368 365 364 364 360 357 357 356 354 353 351 347 345 346 348 350 351 350 349 349 348 346 344 342 342 343 343 342 340 338 338 336 334 332 328
335 339 338 338 346 351 355 360 360 358 359 361 363 364 367 368 371 372 372 371 370 369 367 367 368 369 368 367 366 363 362 360 358 357 357 354 350 347 347 346 344 344 347 348 348 347 347 346 344 343 341 340 340 340 340 339 337 336 336 334 333 331 329
336 341 348 354 357 356 358 360 360 360 362 366 368 369 369 370 372 373 372 370 369 369 368 368 368 367 365 363 361 360 358 357 357 356 353 349 346 344 345 346 344 344 346 345 345 345 344 343 342 340 340 339 339 339 338 337 337 337 336 335 335 334 332
345 341 351 362 364 363 363 363 363 365 367 370 371 370 370 372 373 371 370 369 368 367 367 367 366 362 358 356 355 354 352 352 352 350 346 344 344 345 345 345 345 345 346 345 343 343 342 342 341 340 339 339 339 339 338 338 338 338 338 337 336 336 334
360 354 357 362 364 365 367 367 367 368 368 369 370 369 370 371 370 368 368 368 367 367 366 364 359 353 349 348 346 343 342 343 344 344 343 343 344 344 345 345 345 346 345 344 343 342 341 341 340 340 340 340 339 339 339 339 339 339 338 337 336 336 334
362 360 362 364 364 365 367 368 368 367 367 368 368 368 369 368 367 367 367 367 365 363 359 354 348 343 340 338 336 334 335 337 340 342 343 342 342 343 343 344 345 345 344 343 342 342 341 341 340 340 340 340 340 340 340 340 339 339 338 337 336 335 334
357 359 363 365 365 364 365 366 365 365 367 367 367 368 368 367 366 364 363 361 358 352 345 339 337 335 334 334 335 335 336 338 341 344 346 347 347 347 347 346 345 344 343 343 342 342 342 341 341 341 341 341 341 341 340 339 338 338 337 336 335 334 334
353 355 358 361 363 362 363 364 364 365 366 366 367 367 365 363 362 360 359 355 347 339 335 334 334 333 334 336 337 339 342 344 344 344 346 348 348 347 347 345 344 344 343 343 343 343 341 341 342 342 342 341 341 340 338 337 337 337 337 336 336 335 334
354 353 352 354 358 360 362 362 362 362 362 362 362 361 359 358 357 356 352 346 338 334 334 335 333 334 336 339 341 344 345 346 345 344 344 346 346 346 345 344 343 344 344 343 343 343 342 341 342 341 341 341 339 338 337 337 336 335 335 335 335 335 334
351 353 354 353 353 355 357 358 357 356 356 356 356 355 355 355 353 348 341 335 334 334 334 334 335 338 340 343 346 347 346 346 345 344 344 344 345 345 345 343 343 344 344 343 343 343 342 342 342 341 341 340 337 336 337 337 336 333 332 332 333 332 332
346 349 352 350 348 351 354 355 354 353 352 352 351 350 350 349 343 337 334 334 334 334 334 335 339 341 342 345 346 345 345 345 345 345 344 344 344 345 344 344 343 343 343 343 342 342 342 341 341 340 340 339 337 336 336 336 336 334 332 331 330 330 330
346 348 348 347 348 352 355 356 355 354 353 353 352 351 351 350 344 338 335 335 336 337 337 340 342 343 344 345 343 340 341 344 345 345 344 344 343 343 344 344 343 342 342 342 342 341 340 340 339 339 340 339 337 336 335 333 333 334 332 331 330 330 329